Wetterdaten: Dienstag, 04.04.2017
Datum Zeit Temp. Aussen Temp. o. S. +5cm Feuchte Auss BlattFeu 1 Luftdruck Regen Sonnenschein Regendauer Solar Windben Empfang
04.04.2017 00:00 7,6 C 5,6 C 3,3 C 84 % 0 lf 1024,3 hPa 0,0 l/m 0 min 0 min 0 W/m 0,0 km/h (0 Bft) 100,00 %
04.04.2017 00:02 7,5 C 5,6 C 3,3 C 84 % 0 lf 1024,3 hPa 0,0 l/m 0 min 0 min 0 W/m 0,0 km/h (0 Bft) 97,50 %
04.04.2017 00:04 7,5 C 5,6 C 3,3 C 84 % 0 lf 1024,3 hPa 0,0 l/m 0 min 0 min 0 W/m 0,0 km/h (0 Bft) 97,87 %
04.04.2017 00:06 7,4 C 5,6 C 3,3 C 84 % 0 lf 1024,4 hPa 0,0 l/m 0 min 0 min 0 W/m 0,0 km/h (0 Bft) 100,00 %
04.04.2017 00:10 7,4 C 5,6 C 3,3 C 84 % 1 lf 1024,3 hPa 0,0 l/m 0 min 0 min 0 W/m 0,0 km/h (0 Bft) 97,92 %
04.04.2017 00:12 7,3 C 5,6 C 3,3 C 84 % 1 lf 1024,2 hPa 0,0 l/m 0 min 0 min 0 W/m 0,0 km/h (0 Bft) 100,00 %
04.04.2017 00:14 7,3 C 5,6 C 3,3 C 84 % 1 lf 1024,3 hPa 0,0 l/m 0 min 0 min 0 W/m 0,0 km/h (0 Bft) 97,87 %
04.04.2017 00:16 7,3 C 5,0 C 3,3 C 84 % 1 lf 1024,3 hPa 0,0 l/m 0 min 0 min 0 W/m 0,0 km/h (0 Bft) 100,00 %
04.04.2017 00:18 7,2 C 5,0 C 3,3 C 84 % 1 lf 1024,3 hPa 0,0 l/m 0 min 0 min 0 W/m 0,0 km/h (0 Bft) 100,00 %
04.04.2017 00:20 7,2 C 5,0 C 3,3 C 85 % 1 lf 1024,3 hPa 0,0 l/m 0 min 0 min 0 W/m 0,0 km/h (0 Bft) 100,00 %
04.04.2017 00:22 7,2 C 5,0 C 3,3 C 85 % 1 lf 1024,3 hPa 0,0 l/m 0 min 0 min 0 W/m 0,0 km/h (0 Bft) 100,00 %
04.04.2017 00:24 7,1 C 5,0 C 3,3 C 85 % 1 lf 1024,3 hPa 0,0 l/m 0 min 0 min 2 W/m 0,0 km/h (0 Bft) 95,65 %
04.04.2017 00:26 7,1 C 5,0 C 3,3 C 85 % 1 lf 1024,3 hPa 0,0 l/m 0 min 0 min 1 W/m 0,0 km/h (0 Bft) 95,74 %
04.04.2017 00:28 7,1 C 5,0 C 3,3 C 85 % 1 lf 1024,3 hPa 0,0 l/m 0 min 0 min 0 W/m 0,0 km/h (0 Bft) 97,87 %
04.04.2017 00:30 7,0 C 5,0 C 3,3 C 85 % 1 lf 1024,3 hPa 0,0 l/m 0 min 0 min 0 W/m 0,0 km/h (0 Bft) 97,87 %
04.04.2017 00:32 7,0 C 5,0 C 3,3 C 85 % 1 lf 1024,2 hPa 0,0 l/m 0 min 0 min 0 W/m 0,0 km/h (0 Bft) 97,87 %
04.04.2017 00:34 6,9 C 5,0 C 3,3 C 85 % 1 lf 1024,2 hPa 0,0 l/m 0 min 0 min 0 W/m 0,0 km/h (0 Bft) 93,62 %
04.04.2017 00:36 6,9 C 5,0 C 3,3 C 85 % 1 lf 1024,2 hPa 0,0 l/m 0 min 0 min 0 W/m 0,0 km/h (0 Bft) 93,48 %
04.04.2017 00:38 6,9 C 5,0 C 3,3 C 85 % 1 lf 1024,2 hPa 0,0 l/m 0 min 0 min 0 W/m 0,0 km/h (0 Bft) 97,87 %
04.04.2017 00:40 6,8 C 5,0 C 3,3 C 85 % 1 lf 1024,3 hPa 0,0 l/m 0 min 0 min 0 W/m 0,0 km/h (0 Bft) 93,62 %
04.04.2017 00:42 6,8 C 5,0 C 3,3 C 85 % 1 lf 1024,3 hPa 0,0 l/m 0 min 0 min 0 W/m 0,0 km/h (0 Bft) 100,00 %
04.04.2017 00:44 6,8 C 5,0 C 3,3 C 85 % 1 lf 1024,2 hPa 0,0 l/m 0 min 0 min 0 W/m 0,0 km/h (0 Bft) 97,87 %
04.04.2017 00:46 6,7 C 5,6 C 3,3 C 85 % 1 lf 1024,2 hPa 0,0 l/m 0 min 0 min 0 W/m 0,0 km/h (0 Bft) 97,87 %
04.04.2017 00:48 6,7 C 5,6 C 3,3 C 85 % 1 lf 1024,3 hPa 0,0 l/m 0 min 0 min 0 W/m 0,0 km/h (0 Bft) 97,83 %
04.04.2017 00:50 6,7 C 5,6 C 3,3 C 85 % 1 lf 1024,3 hPa 0,0 l/m 0 min 0 min 0 W/m 0,0 km/h (0 Bft) 95,74 %
04.04.2017 00:52 6,7 C 5,0 C 3,3 C 85 % 1 lf 1024,3 hPa 0,0 l/m 0 min 0 min 0 W/m 0,0 km/h (0 Bft) 95,74 %
04.04.2017 00:54 6,6 C 5,0 C 2,8 C 85 % 1 lf 1024,3 hPa 0,0 l/m 0 min 0 min 0 W/m 0,0 km/h (0 Bft) 91,49 %
04.04.2017 00:56 6,6 C 5,0 C 2,8 C 85 % 1 lf 1024,3 hPa 0,0 l/m 0 min 0 min 0 W/m 0,0 km/h (0 Bft) 95,74 %
04.04.2017 00:58 6,6 C 5,0 C 2,8 C 85 % 1 lf 1024,3 hPa 0,0 l/m 0 min 0 min 0 W/m 0,0 km/h (0 Bft) 95,65 %
04.04.2017 01:00 6,5 C 5,0 C 2,8 C 85 % 1 lf 1024,3 hPa 0,0 l/m 0 min 0 min 0 W/m 0,0 km/h (0 Bft) 93,62 %
04.04.2017 01:02 6,4 C 5,0 C 3,3 C 85 % 1 lf 1024,3 hPa 0,0 l/m 0 min 0 min 0 W/m 0,0 km/h (0 Bft) 93,62 %
04.04.2017 01:04 6,4 C 5,0 C 3,3 C 85 % 1 lf 1024,3 hPa 0,0 l/m 0 min 0 min 0 W/m 0,0 km/h (0 Bft) 95,74 %
04.04.2017 01:06 6,4 C 5,0 C 2,8 C 85 % 1 lf 1024,3 hPa 0,0 l/m 0 min 0 min 0 W/m 0,0 km/h (0 Bft) 95,74 %
04.04.2017 01:08 6,4 C 4,4 C 2,8 C 85 % 1 lf 1024,3 hPa 0,0 l/m 0 min 0 min 0 W/m 0,0 km/h (0 Bft) 95,74 %
04.04.2017 01:10 6,4 C 4,4 C 2,8 C 85 % 1 lf 1024,3 hPa 0,0 l/m 0 min 0 min 0 W/m 0,0 km/h (0 Bft) 95,65 %
04.04.2017 01:12 6,3 C 4,4 C 2,8 C 85 % 1 lf 1024,3 hPa 0,0 l/m 0 min 0 min 0 W/m 0,0 km/h (0 Bft) 97,87 %
04.04.2017 01:14 6,3 C 4,4 C 2,8 C 85 % 1 lf 1024,3 hPa 0,0 l/m 0 min 0 min 0 W/m 0,0 km/h (0 Bft) 95,74 %
04.04.2017 01:16 6,3 C 4,4 C 2,8 C 86 % 1 lf 1024,2 hPa 0,0 l/m 0 min 0 min 0 W/m 0,0 km/h (0 Bft) 93,62 %
04.04.2017 01:18 6,2 C 4,4 C 2,8 C 86 % 1 lf 1024,2 hPa 0,0 l/m 0 min 0 min 0 W/m 0,0 km/h (0 Bft) 97,83 %
04.04.2017 01:20 6,2 C 4,4 C 2,8 C 86 % 1 lf 1024,2 hPa 0,0 l/m 0 min 0 min 0 W/m 0,0 km/h (0 Bft) 93,62 %
04.04.2017 01:22 6,2 C 4,4 C 2,8 C 86 % 1 lf 1024,2 hPa 0,0 l/m 0 min 0 min 0 W/m 0,0 km/h (0 Bft) 91,30 %
04.04.2017 01:24 6,2 C 4,4 C 2,8 C 86 % 1 lf 1024,2 hPa 0,0 l/m 0 min 0 min 0 W/m 0,0 km/h (0 Bft) 95,74 %
04.04.2017 01:26 6,2 C 4,4 C 2,8 C 86 % 1 lf 1024,2 hPa 0,0 l/m 0 min 0 min 0 W/m 0,0 km/h (0 Bft) 95,74 %
04.04.2017 01:28 6,1 C 4,4 C 2,8 C 86 % 1 lf 1024,1 hPa 0,0 l/m 0 min 0 min 1 W/m 0,0 km/h (0 Bft) 95,74 %
04.04.2017 01:30 6,1 C 4,4 C 2,8 C 86 % 2 lf 1024,1 hPa 0,0 l/m 0 min 0 min 5 W/m 0,0 km/h (0 Bft) 95,74 %
04.04.2017 01:32 6,1 C 4,4 C 2,8 C 86 % 2 lf 1024,1 hPa 0,0 l/m 0 min 0 min 0 W/m 0,0 km/h (0 Bft) 89,36 %
04.04.2017 01:34 6,1 C 5,0 C 2,8 C 86 % 2 lf 1024,2 hPa 0,0 l/m 0 min 0 min 0 W/m 0,0 km/h (0 Bft) 97,83 %
04.04.2017 01:36 6,0 C 5,0 C 2,8 C 86 % 2 lf 1024,1 hPa 0,0 l/m 0 min 0 min 0 W/m 0,0 km/h (0 Bft) 97,87 %
04.04.2017 01:38 6,0 C 5,0 C 2,8 C 87 % 2 lf 1024,1 hPa 0,0 l/m 0 min 0 min 0 W/m 0,0 km/h (0 Bft) 97,87 %
04.04.2017 01:40 5,9 C 5,0 C 2,8 C 87 % 2 lf 1024,1 hPa 0,0 l/m 0 min 0 min 0 W/m 0,0 km/h (0 Bft) 95,74 %
04.04.2017 01:42 5,9 C 4,4 C 2,8 C 87 % 2 lf 1024,1 hPa 0,0 l/m 0 min 0 min 0 W/m 0,0 km/h (0 Bft) 95,74 %
04.04.2017 01:44 5,9 C 4,4 C 2,2 C 87 % 2 lf 1024,1 hPa 0,0 l/m 0 min 0 min 0 W/m 0,0 km/h (0 Bft) 97,87 %
04.04.2017 01:46 5,9 C 4,4 C 2,8 C 87 % 2 lf 1024,1 hPa 0,0 l/m 0 min 0 min 0 W/m 0,0 km/h (0 Bft) 95,65 %
04.04.2017 01:48 5,8 C 4,4 C 2,8 C 87 % 2 lf 1024,1 hPa 0,0 l/m 0 min 0 min 0 W/m 0,0 km/h (0 Bft) 97,87 %
04.04.2017 01:50 5,8 C 4,4 C 2,2 C 87 % 2 lf 1024,1 hPa 0,0 l/m 0 min 0 min 0 W/m 0,0 km/h (0 Bft) 100,00 %
04.04.2017 01:52 5,8 C 4,4 C 2,8 C 87 % 2 lf 1024,1 hPa 0,0 l/m 0 min 0 min 0 W/m 0,0 km/h (0 Bft) 95,74 %
04.04.2017 01:54 5,8 C 4,4 C 2,8 C 87 % 2 lf 1024,1 hPa 0,0 l/m 0 min 0 min 0 W/m 0,0 km/h (0 Bft) 100,00 %
04.04.2017 01:56 5,7 C 4,4 C 2,8 C 87 % 2 lf 1024,1 hPa 0,0 l/m 0 min 0 min 0 W/m 0,0 km/h (0 Bft) 97,87 %
04.04.2017 01:58 5,7 C 4,4 C 2,8 C 87 % 2 lf 1024,1 hPa 0,0 l/m 0 min 0 min 0 W/m 0,0 km/h (0 Bft) 97,83 %
04.04.2017 02:00 5,7 C 4,4 C 2,8 C 87 % 2 lf 1024,1 hPa 0,0 l/m 0 min 0 min 1 W/m 0,0 km/h (0 Bft) 97,87 %
04.04.2017 02:02 5,7 C 4,4 C 2,8 C 87 % 2 lf 1024,1 hPa 0,0 l/m 0 min 0 min 2 W/m 0,0 km/h (0 Bft) 95,74 %
04.04.2017 02:04 5,6 C 4,4 C 2,2 C 87 % 3 lf 1024,1 hPa 0,0 l/m 0 min 0 min 2 W/m 0,0 km/h (0 Bft) 95,74 %
04.04.2017 02:06 5,6 C 4,4 C 2,2 C 87 % 3 lf 1024,0 hPa 0,0 l/m 0 min 0 min 4 W/m 0,0 km/h (0 Bft) 97,87 %
04.04.2017 02:08 5,6 C 4,4 C 2,2 C 87 % 3 lf 1024,0 hPa 0,0 l/m 0 min 0 min 4 W/m 0,0 km/h (0 Bft) 100,00 %
04.04.2017 02:10 5,5 C 3,9 C 2,2 C 87 % 3 lf 1024,0 hPa 0,0 l/m 0 min 0 min 4 W/m 0,0 km/h (0 Bft) 100,00 %
04.04.2017 02:12 5,5 C 3,9 C 2,2 C 87 % 3 lf 1024,0 hPa 0,0 l/m 0 min 0 min 4 W/m 0,0 km/h (0 Bft) 97,87 %
04.04.2017 02:14 5,4 C 3,9 C 2,2 C 87 % 3 lf 1023,9 hPa 0,0 l/m 0 min 0 min 4 W/m 0,0 km/h (0 Bft) 93,62 %
04.04.2017 02:16 5,4 C 3,9 C 2,2 C 87 % 3 lf 1023,9 hPa 0,0 l/m 0 min 0 min 4 W/m 0,0 km/h (0 Bft) 97,87 %
04.04.2017 02:18 5,4 C 3,9 C 2,2 C 87 % 3 lf 1023,9 hPa 0,0 l/m 0 min 0 min 4 W/m 0,0 km/h (0 Bft) 95,74 %
04.04.2017 02:20 5,4 C 3,9 C 2,2 C 87 % 3 lf 1023,9 hPa 0,0 l/m 0 min 0 min 5 W/m 0,0 km/h (0 Bft) 93,48 %
04.04.2017 02:22 5,4 C 3,9 C 2,2 C 87 % 3 lf 1023,9 hPa 0,0 l/m 0 min 0 min 5 W/m 0,0 km/h (0 Bft) 93,62 %
04.04.2017 02:24 5,3 C 3,9 C 2,2 C 88 % 3 lf 1023,9 hPa 0,0 l/m 0 min 0 min 5 W/m 0,0 km/h (0 Bft) 97,87 %
04.04.2017 02:26 5,3 C 3,9 C 2,2 C 88 % 3 lf 1023,8 hPa 0,0 l/m 0 min 0 min 5 W/m 0,0 km/h (0 Bft) 97,87 %
04.04.2017 02:28 5,3 C 3,9 C 2,2 C 87 % 4 lf 1023,8 hPa 0,0 l/m 0 min 0 min 5 W/m 0,0 km/h (0 Bft) 95,74 %
04.04.2017 02:30 5,3 C 3,9 C 2,2 C 88 % 4 lf 1023,8 hPa 0,0 l/m 0 min 0 min 0 W/m 0,0 km/h (0 Bft) 95,74 %
04.04.2017 02:32 5,3 C 3,9 C 2,2 C 88 % 4 lf 1023,8 hPa 0,0 l/m 0 min 0 min 0 W/m 0,0 km/h (0 Bft) 95,65 %
04.04.2017 02:34 5,2 C 3,9 C 2,2 C 88 % 4 lf 1023,7 hPa 0,0 l/m 0 min 0 min 0 W/m 0,0 km/h (0 Bft) 95,74 %
04.04.2017 02:36 5,2 C 3,9 C 2,2 C 88 % 4 lf 1023,7 hPa 0,0 l/m 0 min 0 min 3 W/m 0,0 km/h (0 Bft) 95,74 %
04.04.2017 02:38 5,2 C 3,9 C 2,2 C 88 % 4 lf 1023,7 hPa 0,0 l/m 0 min 0 min 0 W/m 0,0 km/h (0 Bft) 97,87 %
04.04.2017 02:40 5,2 C 4,4 C 2,2 C 88 % 5 lf 1023,7 hPa 0,0 l/m 0 min 0 min 0 W/m 0,0 km/h (0 Bft) 100,00 %
04.04.2017 02:42 5,1 C 4,4 C 2,2 C 88 % 5 lf 1023,7 hPa 0,0 l/m 0 min 0 min 0 W/m 0,0 km/h (0 Bft) 97,87 %
04.04.2017 02:44 5,1 C 4,4 C 2,2 C 88 % 6 lf 1023,6 hPa 0,0 l/m 0 min 0 min 0 W/m 0,0 km/h (0 Bft) 100,00 %
04.04.2017 02:46 5,1 C 5,0 C 2,2 C 88 % 7 lf 1023,7 hPa 0,0 l/m 0 min 0 min 0 W/m 0,0 km/h (0 Bft) 100,00 %
04.04.2017 02:48 5,1 C 5,0 C 2,2 C 89 % 8 lf 1023,6 hPa 0,0 l/m 0 min 0 min 0 W/m 0,0 km/h (0 Bft) 97,87 %
04.04.2017 02:50 5,1 C 5,0 C 2,2 C 89 % 9 lf 1023,6 hPa 0,0 l/m 0 min 0 min 0 W/m 0,0 km/h (0 Bft) 100,00 %
04.04.2017 02:52 5,1 C 4,4 C 2,2 C 89 % 9 lf 1023,5 hPa 0,0 l/m 0 min 0 min 0 W/m 0,0 km/h (0 Bft) 97,87 %
04.04.2017 02:54 5,1 C 4,4 C 2,2 C 89 % 10 lf 1023,5 hPa 0,0 l/m 0 min 0 min 0 W/m 0,0 km/h (0 Bft) 100,00 %
04.04.2017 02:56 5,1 C 4,4 C 2,2 C 89 % 11 lf 1023,5 hPa 0,0 l/m 0 min 0 min 0 W/m 0,0 km/h (0 Bft) 100,00 %
04.04.2017 02:58 5,1 C 3,9 C 2,2 C 90 % 11 lf 1023,6 hPa 0,0 l/m 0 min 0 min 0 W/m 0,0 km/h (0 Bft) 97,87 %
04.04.2017 03:00 5,1 C 3,9 C 2,2 C 90 % 12 lf 1023,5 hPa 0,0 l/m 0 min 0 min 0 W/m 0,0 km/h (0 Bft) 95,74 %
04.04.2017 03:02 5,1 C 3,9 C 2,2 C 90 % 12 lf 1023,5 hPa 0,0 l/m 0 min 0 min 0 W/m 0,0 km/h (0 Bft) 100,00 %
04.04.2017 03:04 5,1 C 3,9 C 1,7 C 90 % 13 lf 1023,6 hPa 0,0 l/m 0 min 0 min 0 W/m 0,0 km/h (0 Bft) 100,00 %
04.04.2017 03:06 5,1 C 3,9 C 2,2 C 90 % 13 lf 1023,5 hPa 0,0 l/m 0 min 0 min 0 W/m 0,0 km/h (0 Bft) 100,00 %
04.04.2017 03:08 5,0 C 3,9 C 1,7 C 90 % 13 lf 1023,4 hPa 0,0 l/m 0 min 0 min 0 W/m 0,0 km/h (0 Bft) 93,48 %
04.04.2017 03:10 5,0 C 3,9 C 1,7 C 90 % 14 lf 1023,5 hPa 0,0 l/m 0 min 0 min 0 W/m 0,0 km/h (0 Bft) 95,74 %
04.04.2017 03:12 5,0 C 3,9 C 1,7 C 90 % 14 lf 1023,4 hPa 0,0 l/m 0 min 0 min 0 W/m 0,0 km/h (0 Bft) 97,87 %
04.04.2017 03:14 5,0 C 3,3 C 1,7 C 90 % 14 lf 1023,4 hPa 0,0 l/m 0 min 0 min 0 W/m 0,0 km/h (0 Bft) 97,87 %
04.04.2017 03:16 4,9 C 3,3 C 1,7 C 90 % 14 lf 1023,4 hPa 0,0 l/m 0 min 0 min 0 W/m 0,0 km/h (0 Bft) 95,74 %
04.04.2017 03:18 4,9 C 3,3 C 1,7 C 90 % 15 lf 1023,4 hPa 0,0 l/m 0 min 0 min 1 W/m 0,0 km/h (0 Bft) 97,83 %
04.04.2017 03:20 4,9 C 3,3 C 1,7 C 90 % 15 lf 1023,3 hPa 0,0 l/m 0 min 0 min 0 W/m 0,0 km/h (0 Bft) 95,74 %
04.04.2017 03:22 4,9 C 3,3 C 1,7 C 90 % 15 lf 1023,4 hPa 0,0 l/m 0 min 0 min 0 W/m 0,0 km/h (0 Bft) 95,74 %
04.04.2017 03:24 4,9 C 3,3 C 1,7 C 90 % 15 lf 1023,4 hPa 0,0 l/m 0 min 0 min 0 W/m 0,0 km/h (0 Bft) 95,74 %
04.04.2017 03:26 4,9 C 3,3 C 1,7 C 90 % 15 lf 1023,4 hPa 0,0 l/m 0 min 0 min 0 W/m 0,0 km/h (0 Bft) 95,74 %
04.04.2017 03:28 4,8 C 3,3 C 1,7 C 90 % 15 lf 1023,4 hPa 0,0 l/m 0 min 0 min 0 W/m 0,0 km/h (0 Bft) 95,74 %
04.04.2017 03:30 4,8 C 3,3 C 1,7 C 90 % 15 lf 1023,3 hPa 0,0 l/m 0 min 0 min 0 W/m 0,0 km/h (0 Bft) 95,65 %
04.04.2017 03:32 4,8 C 3,3 C 1,7 C 90 % 15 lf 1023,4 hPa 0,0 l/m 0 min 0 min 0 W/m 0,0 km/h (0 Bft) 93,62 %
04.04.2017 03:34 4,8 C 3,3 C 1,7 C 90 % 15 lf 1023,3 hPa 0,0 l/m 0 min 0 min 0 W/m 0,0 km/h (0 Bft) 97,87 %
04.04.2017 03:36 4,8 C 3,3 C 1,7 C 90 % 15 lf 1023,3 hPa 0,0 l/m 0 min 0 min 0 W/m 0,0 km/h (0 Bft) 93,62 %
04.04.2017 03:38 4,8 C 3,3 C 1,7 C 90 % 15 lf 1023,3 hPa 0,0 l/m 0 min 0 min 0 W/m 0,0 km/h (0 Bft) 93,62 %
04.04.2017 03:40 4,7 C 3,3 C 1,7 C 90 % 15 lf 1023,3 hPa 0,0 l/m 0 min 0 min 0 W/m 0,0 km/h (0 Bft) 93,62 %
04.04.2017 03:42 4,7 C 2,8 C 1,7 C 90 % 15 lf 1023,3 hPa 0,0 l/m 0 min 0 min 0 W/m 0,0 km/h (0 Bft) 93,48 %
04.04.2017 03:44 4,7 C 2,8 C 1,7 C 90 % 15 lf 1023,3 hPa 0,0 l/m 0 min 0 min 0 W/m 0,0 km/h (0 Bft) 95,74 %
04.04.2017 03:46 4,7 C 2,8 C 1,7 C 90 % 15 lf 1023,3 hPa 0,0 l/m 0 min 0 min 3 W/m 0,0 km/h (0 Bft) 93,62 %
04.04.2017 03:48 4,7 C 2,8 C 1,7 C 90 % 15 lf 1023,3 hPa 0,0 l/m 0 min 0 min 2 W/m 0,0 km/h (0 Bft) 93,62 %
04.04.2017 03:50 4,7 C 2,8 C 1,7 C 90 % 15 lf 1023,3 hPa 0,0 l/m 0 min 0 min 0 W/m 0,0 km/h (0 Bft) 95,74 %
04.04.2017 03:52 4,6 C 2,8 C 1,7 C 90 % 15 lf 1023,3 hPa 0,0 l/m 0 min 0 min 1 W/m 0,0 km/h (0 Bft) 91,49 %
04.04.2017 03:54 4,6 C 2,8 C 1,7 C 90 % 15 lf 1023,3 hPa 0,0 l/m 0 min 0 min 0 W/m 0,0 km/h (0 Bft) 93,48 %
04.04.2017 03:56 4,6 C 2,8 C 1,7 C 90 % 15 lf 1023,3 hPa 0,0 l/m 0 min 0 min 0 W/m 0,0 km/h (0 Bft) 91,49 %
04.04.2017 03:58 4,6 C 2,8 C 1,7 C 90 % 15 lf 1023,3 hPa 0,0 l/m 0 min 0 min 1 W/m 0,0 km/h (0 Bft) 91,49 %
04.04.2017 04:00 4,6 C 2,8 C 1,7 C 90 % 15 lf 1023,3 hPa 0,0 l/m 0 min 0 min 2 W/m 0,0 km/h (0 Bft) 89,36 %
04.04.2017 04:02 4,5 C 2,8 C 1,7 C 90 % 15 lf 1023,3 hPa 0,0 l/m 0 min 0 min 3 W/m 0,0 km/h (0 Bft) 100,00 %
04.04.2017 04:04 4,5 C 2,8 C 1,7 C 90 % 15 lf 1023,3 hPa 0,0 l/m 0 min 0 min 1 W/m 0,0 km/h (0 Bft) 93,62 %
04.04.2017 04:06 4,5 C 2,8 C 1,7 C 90 % 15 lf 1023,2 hPa 0,0 l/m 0 min 0 min 2 W/m 0,0 km/h (0 Bft) 93,48 %
04.04.2017 04:08 4,4 C 2,8 C 1,7 C 90 % 15 lf 1023,2 hPa 0,0 l/m 0 min 0 min 0 W/m 0,0 km/h (0 Bft) 93,62 %
04.04.2017 04:10 4,4 C 2,8 C 1,1 C 90 % 15 lf 1023,2 hPa 0,0 l/m 0 min 0 min 0 W/m 0,0 km/h (0 Bft) 89,36 %
04.04.2017 04:12 4,4 C 2,8 C 1,1 C 90 % 15 lf 1023,1 hPa 0,0 l/m 0 min 0 min 0 W/m 0,0 km/h (0 Bft) 93,62 %
04.04.2017 04:14 4,4 C 2,8 C 1,1 C 90 % 15 lf 1023,2 hPa 0,0 l/m 0 min 0 min 0 W/m 0,0 km/h (0 Bft) 93,62 %
04.04.2017 04:16 4,3 C 2,8 C 1,1 C 91 % 15 lf 1023,2 hPa 0,0 l/m 0 min 0 min 0 W/m 0,0 km/h (0 Bft) 93,62 %
04.04.2017 04:18 4,3 C 2,8 C 1,1 C 91 % 15 lf 1023,2 hPa 0,0 l/m 0 min 0 min 0 W/m 0,0 km/h (0 Bft) 93,48 %
04.04.2017 04:20 4,3 C 2,8 C 1,1 C 91 % 15 lf 1023,2 hPa 0,0 l/m 0 min 0 min 0 W/m 0,0 km/h (0 Bft) 93,62 %
04.04.2017 04:22 4,3 C 2,8 C 1,1 C 91 % 15 lf 1023,2 hPa 0,0 l/m 0 min 0 min 0 W/m 0,0 km/h (0 Bft) 89,36 %
04.04.2017 04:24 4,3 C 2,8 C 1,1 C 91 % 15 lf 1023,2 hPa 0,0 l/m 0 min 0 min 0 W/m 0,0 km/h (0 Bft) 93,62 %
04.04.2017 04:26 4,2 C 2,8 C 1,1 C 90 % 15 lf 1023,2 hPa 0,0 l/m 0 min 0 min 0 W/m 0,0 km/h (0 Bft) 91,49 %
04.04.2017 04:28 4,2 C 2,8 C 1,1 C 90 % 15 lf 1023,2 hPa 0,0 l/m 0 min 0 min 0 W/m 0,0 km/h (0 Bft) 95,74 %
04.04.2017 04:30 4,2 C 2,8 C 1,1 C 90 % 15 lf 1023,2 hPa 0,0 l/m 0 min 0 min 0 W/m 0,0 km/h (0 Bft) 95,65 %
04.04.2017 04:32 4,2 C 2,8 C 1,1 C 90 % 15 lf 1023,2 hPa 0,0 l/m 0 min 0 min 0 W/m 0,0 km/h (0 Bft) 97,87 %
04.04.2017 04:34 4,2 C 2,8 C 1,1 C 90 % 15 lf 1023,2 hPa 0,0 l/m 0 min 0 min 0 W/m 0,0 km/h (0 Bft) 95,74 %
04.04.2017 04:36 4,1 C 2,8 C 1,1 C 91 % 15 lf 1023,2 hPa 0,0 l/m 0 min 0 min 0 W/m 0,0 km/h (0 Bft) 97,87 %
04.04.2017 04:38 4,1 C 2,8 C 1,1 C 91 % 15 lf 1023,2 hPa 0,0 l/m 0 min 0 min 0 W/m 0,0 km/h (0 Bft) 95,74 %
04.04.2017 04:40 4,1 C 2,8 C 1,1 C 91 % 15 lf 1023,2 hPa 0,0 l/m 0 min 0 min 0 W/m 0,0 km/h (0 Bft) 95,65 %
04.04.2017 04:42 4,1 C 2,8 C 1,1 C 91 % 15 lf 1023,2 hPa 0,0 l/m 0 min 0 min 0 W/m 0,0 km/h (0 Bft) 97,87 %
04.04.2017 04:44 4,1 C 2,2 C 1,1 C 91 % 15 lf 1023,2 hPa 0,0 l/m 0 min 0 min 0 W/m 0,0 km/h (0 Bft) 93,62 %
04.04.2017 04:46 4,1 C 2,2 C 1,1 C 91 % 15 lf 1023,2 hPa 0,0 l/m 0 min 0 min 0 W/m 0,0 km/h (0 Bft) 97,87 %
04.04.2017 04:48 4,0 C 2,2 C 1,1 C 91 % 15 lf 1023,2 hPa 0,0 l/m 0 min 0 min 0 W/m 0,0 km/h (0 Bft) 95,74 %
04.04.2017 04:50 4,0 C 2,2 C 1,1 C 91 % 15 lf 1023,2 hPa 0,0 l/m 0 min 0 min 0 W/m 0,0 km/h (0 Bft) 97,87 %
04.04.2017 04:52 4,0 C 2,2 C 1,1 C 91 % 15 lf 1023,2 hPa 0,0 l/m 0 min 0 min 0 W/m 0,0 km/h (0 Bft) 95,65 %
04.04.2017 04:54 3,9 C 2,2 C 1,1 C 91 % 15 lf 1023,1 hPa 0,0 l/m 0 min 0 min 0 W/m 0,0 km/h (0 Bft) 95,74 %
04.04.2017 04:56 3,9 C 2,2 C 1,1 C 91 % 15 lf 1023,2 hPa 0,0 l/m 0 min 0 min 0 W/m 0,0 km/h (0 Bft) 97,87 %
04.04.2017 04:58 3,9 C 2,2 C 1,1 C 91 % 15 lf 1023,1 hPa 0,0 l/m 0 min 0 min 0 W/m 0,0 km/h (0 Bft) 95,74 %
04.04.2017 05:00 3,9 C 2,2 C 1,1 C 91 % 15 lf 1023,1 hPa 0,0 l/m 0 min 0 min 0 W/m 0,0 km/h (0 Bft) 100,00 %
04.04.2017 05:02 3,9 C 2,2 C 1,1 C 91 % 15 lf 1023,1 hPa 0,0 l/m 0 min 0 min 0 W/m 0,0 km/h (0 Bft) 91,49 %
04.04.2017 05:04 3,8 C 2,2 C 1,1 C 91 % 15 lf 1023,2 hPa 0,0 l/m 0 min 0 min 0 W/m 0,0 km/h (0 Bft) 100,00 %
04.04.2017 05:06 3,8 C 2,2 C 1,1 C 91 % 15 lf 1023,1 hPa 0,0 l/m 0 min 0 min 0 W/m 0,0 km/h (0 Bft) 97,87 %
04.04.2017 05:08 3,8 C 2,2 C 1,1 C 91 % 15 lf 1023,1 hPa 0,0 l/m 0 min 0 min 0 W/m 0,0 km/h (0 Bft) 97,87 %
04.04.2017 05:10 3,8 C 2,2 C 1,1 C 91 % 15 lf 1023,1 hPa 0,0 l/m 0 min 0 min 0 W/m 0,0 km/h (0 Bft) 97,87 %
04.04.2017 05:12 3,8 C 2,2 C 1,1 C 91 % 15 lf 1023,1 hPa 0,0 l/m 0 min 0 min 0 W/m 0,0 km/h (0 Bft) 100,00 %
04.04.2017 05:14 3,8 C 2,2 C 1,1 C 91 % 15 lf 1023,1 hPa 0,0 l/m 0 min 0 min 0 W/m 0,0 km/h (0 Bft) 100,00 %
04.04.2017 05:16 3,7 C 2,2 C 1,1 C 91 % 15 lf 1023,1 hPa 0,0 l/m 0 min 0 min 0 W/m 0,0 km/h (0 Bft) 100,00 %
04.04.2017 05:18 3,7 C 2,2 C 1,1 C 91 % 15 lf 1023,1 hPa 0,0 l/m 0 min 0 min 0 W/m 0,0 km/h (0 Bft) 97,87 %
04.04.2017 05:20 3,7 C 2,2 C 1,1 C 91 % 15 lf 1023,1 hPa 0,0 l/m 0 min 0 min 0 W/m 0,0 km/h (0 Bft) 95,74 %
04.04.2017 05:22 3,7 C 2,2 C 1,1 C 91 % 15 lf 1023,1 hPa 0,0 l/m 0 min 0 min 0 W/m 0,0 km/h (0 Bft) 97,87 %
04.04.2017 05:24 3,7 C 2,2 C 1,1 C 91 % 15 lf 1023,0 hPa 0,0 l/m 0 min 0 min 0 W/m 0,0 km/h (0 Bft) 100,00 %
04.04.2017 05:26 3,6 C 2,2 C 1,1 C 91 % 15 lf 1023,0 hPa 0,0 l/m 0 min 0 min 0 W/m 0,0 km/h (0 Bft) 100,00 %
04.04.2017 05:28 3,6 C 2,2 C 0,6 C 91 % 15 lf 1023,0 hPa 0,0 l/m 0 min 0 min 0 W/m 0,0 km/h (0 Bft) 100,00 %
04.04.2017 05:30 3,6 C 2,2 C 0,6 C 91 % 15 lf 1023,0 hPa 0,0 l/m 0 min 0 min 0 W/m 0,0 km/h (0 Bft) 100,00 %
04.04.2017 05:32 3,6 C 2,2 C 0,6 C 91 % 15 lf 1023,1 hPa 0,0 l/m 0 min 0 min 0 W/m 0,0 km/h (0 Bft) 97,87 %
04.04.2017 05:34 3,6 C 2,2 C 0,6 C 91 % 15 lf 1023,0 hPa 0,0 l/m 0 min 0 min 0 W/m 0,0 km/h (0 Bft) 93,62 %
04.04.2017 05:36 3,6 C 2,2 C 0,6 C 91 % 15 lf 1023,0 hPa 0,0 l/m 0 min 0 min 0 W/m 0,0 km/h (0 Bft) 95,74 %
04.04.2017 05:38 3,5 C 2,2 C 0,6 C 91 % 15 lf 1023,0 hPa 0,0 l/m 0 min 0 min 0 W/m 0,0 km/h (0 Bft) 100,00 %
04.04.2017 05:40 3,5 C 2,2 C 0,6 C 91 % 15 lf 1023,1 hPa 0,0 l/m 0 min 0 min 0 W/m 0,0 km/h (0 Bft) 100,00 %
04.04.2017 05:42 3,5 C 2,2 C 0,6 C 91 % 15 lf 1023,0 hPa 0,0 l/m 0 min 0 min 0 W/m 0,0 km/h (0 Bft) 95,74 %
04.04.2017 05:44 3,4 C 2,2 C 0,6 C 91 % 15 lf 1023,0 hPa 0,0 l/m 0 min 0 min 0 W/m 0,0 km/h (0 Bft) 97,87 %
04.04.2017 05:46 3,4 C 1,7 C 0,6 C 91 % 15 lf 1023,0 hPa 0,0 l/m 0 min 0 min 0 W/m 0,0 km/h (0 Bft) 97,87 %
04.04.2017 05:48 3,4 C 1,7 C 0,6 C 91 % 15 lf 1023,0 hPa 0,0 l/m 0 min 0 min 0 W/m 0,0 km/h (0 Bft) 93,62 %
04.04.2017 05:50 3,4 C 1,7 C 0,6 C 91 % 15 lf 1023,0 hPa 0,0 l/m 0 min 0 min 0 W/m 0,0 km/h (0 Bft) 93,48 %
04.04.2017 05:52 3,4 C 1,7 C 0,6 C 91 % 15 lf 1023,0 hPa 0,0 l/m 0 min 0 min 0 W/m 0,0 km/h (0 Bft) 91,49 %
04.04.2017 05:54 3,4 C 2,2 C 0,6 C 91 % 15 lf 1023,0 hPa 0,0 l/m 0 min 0 min 0 W/m 0,0 km/h (0 Bft) 95,74 %
04.04.2017 05:56 3,3 C 2,2 C 0,6 C 91 % 15 lf 1023,0 hPa 0,0 l/m 0 min 0 min 0 W/m 0,0 km/h (0 Bft) 95,74 %
04.04.2017 05:58 3,3 C 2,2 C 0,6 C 91 % 15 lf 1023,0 hPa 0,0 l/m 0 min 0 min 0 W/m 0,0 km/h (0 Bft) 95,74 %
04.04.2017 06:00 3,3 C 1,7 C 0,6 C 91 % 15 lf 1023,1 hPa 0,0 l/m 0 min 0 min 0 W/m 0,0 km/h (0 Bft) 93,62 %
04.04.2017 06:02 3,3 C 1,7 C 0,6 C 91 % 15 lf 1023,1 hPa 0,0 l/m 0 min 0 min 0 W/m 0,0 km/h (0 Bft) 91,30 %
04.04.2017 06:04 3,3 C 1,7 C 0,6 C 91 % 15 lf 1023,1 hPa 0,0 l/m 0 min 0 min 0 W/m 0,0 km/h (0 Bft) 95,74 %
04.04.2017 06:06 3,3 C 1,7 C 0,6 C 91 % 15 lf 1023,1 hPa 0,0 l/m 0 min 0 min 0 W/m 0,0 km/h (0 Bft) 91,49 %
04.04.2017 06:08 3,2 C 1,7 C 0,6 C 91 % 15 lf 1023,1 hPa 0,0 l/m 0 min 0 min 0 W/m 0,0 km/h (0 Bft) 95,74 %
04.04.2017 06:10 3,2 C 1,7 C 0,6 C 91 % 15 lf 1023,1 hPa 0,0 l/m 0 min 0 min 0 W/m 0,0 km/h (0 Bft) 95,83 %
04.04.2017 06:12 3,2 C 1,7 C 0,6 C 91 % 15 lf 1023,1 hPa 0,0 l/m 0 min 0 min 0 W/m 0,0 km/h (0 Bft) 95,74 %
04.04.2017 06:14 3,2 C 1,7 C 0,6 C 91 % 15 lf 1023,0 hPa 0,0 l/m 0 min 0 min 0 W/m 0,0 km/h (0 Bft) 97,83 %
04.04.2017 06:16 3,2 C 1,1 C 0,6 C 91 % 15 lf 1023,0 hPa 0,0 l/m 0 min 0 min 0 W/m 0,0 km/h (0 Bft) 95,74 %
04.04.2017 06:18 3,1 C 1,7 C 0,6 C 91 % 15 lf 1023,1 hPa 0,0 l/m 0 min 0 min 0 W/m 0,0 km/h (0 Bft) 95,74 %
04.04.2017 06:20 3,1 C 1,7 C 0,6 C 91 % 15 lf 1023,0 hPa 0,0 l/m 0 min 0 min 0 W/m 0,0 km/h (0 Bft) 93,62 %
04.04.2017 06:22 3,1 C 1,7 C 0,6 C 91 % 15 lf 1023,0 hPa 0,0 l/m 0 min 0 min 0 W/m 0,0 km/h (0 Bft) 97,87 %
04.04.2017 06:24 3,1 C 1,7 C 0,6 C 91 % 15 lf 1023,0 hPa 0,0 l/m 0 min 0 min 0 W/m 0,0 km/h (0 Bft) 97,87 %
04.04.2017 06:26 3,0 C 2,2 C 0,6 C 91 % 15 lf 1023,0 hPa 0,0 l/m 0 min 0 min 0 W/m 0,0 km/h (0 Bft) 97,83 %
04.04.2017 06:28 3,0 C 2,2 C 0,6 C 91 % 15 lf 1023,1 hPa 0,0 l/m 0 min 0 min 0 W/m 0,0 km/h (0 Bft) 97,87 %
04.04.2017 06:30 3,0 C 1,7 C 0,6 C 91 % 15 lf 1023,1 hPa 0,0 l/m 0 min 0 min 0 W/m 0,0 km/h (0 Bft) 97,87 %
04.04.2017 06:32 2,9 C 1,7 C 0,6 C 91 % 15 lf 1023,1 hPa 0,0 l/m 0 min 0 min 0 W/m 0,0 km/h (0 Bft) 95,74 %
04.04.2017 06:34 2,9 C 1,7 C 0,6 C 91 % 15 lf 1023,1 hPa 0,0 l/m 0 min 0 min 0 W/m 0,0 km/h (0 Bft) 100,00 %
04.04.2017 06:36 2,9 C 1,7 C 0,6 C 91 % 15 lf 1023,1 hPa 0,0 l/m 0 min 0 min 0 W/m 0,0 km/h (0 Bft) 97,83 %
04.04.2017 06:38 2,9 C 1,7 C 0,6 C 91 % 15 lf 1023,1 hPa 0,0 l/m 0 min 0 min 0 W/m 0,0 km/h (0 Bft) 100,00 %
04.04.2017 06:40 2,9 C 1,7 C 0,6 C 91 % 15 lf 1023,1 hPa 0,0 l/m 0 min 0 min 0 W/m 0,0 km/h (0 Bft) 97,87 %
04.04.2017 06:42 2,9 C 1,7 C 0,6 C 91 % 15 lf 1023,1 hPa 0,0 l/m 0 min 0 min 0 W/m 0,0 km/h (0 Bft) 97,87 %
04.04.2017 06:44 2,8 C 1,7 C 0,6 C 91 % 15 lf 1023,1 hPa 0,0 l/m 0 min 0 min 0 W/m 0,0 km/h (0 Bft) 97,87 %
04.04.2017 06:46 2,8 C 1,7 C 0,6 C 91 % 15 lf 1023,1 hPa 0,0 l/m 0 min 0 min 0 W/m 0,0 km/h (0 Bft) 100,00 %
04.04.2017 06:48 2,8 C 1,7 C 0,6 C 91 % 15 lf 1023,1 hPa 0,0 l/m 0 min 0 min 0 W/m 0,0 km/h (0 Bft) 95,65 %
04.04.2017 06:50 2,8 C 1,7 C 0,6 C 91 % 15 lf 1023,1 hPa 0,0 l/m 0 min 0 min 0 W/m 0,0 km/h (0 Bft) 100,00 %
04.04.2017 06:52 2,8 C 2,2 C 0,6 C 92 % 15 lf 1023,1 hPa 0,0 l/m 0 min 0 min 0 W/m 0,0 km/h (0 Bft) 100,00 %
04.04.2017 06:54 2,8 C 2,8 C 0,6 C 92 % 15 lf 1023,1 hPa 0,0 l/m 0 min 0 min 0 W/m 0,0 km/h (0 Bft) 100,00 %
04.04.2017 06:56 2,8 C 2,2 C 0,6 C 92 % 15 lf 1023,2 hPa 0,0 l/m 0 min 0 min 0 W/m 0,0 km/h (0 Bft) 97,87 %
04.04.2017 06:58 2,8 C 2,2 C 0,6 C 92 % 15 lf 1023,2 hPa 0,0 l/m 0 min 0 min 2 W/m 0,0 km/h (0 Bft) 100,00 %
04.04.2017 07:00 2,8 C 2,8 C 0,6 C 92 % 15 lf 1023,1 hPa 0,0 l/m 0 min 0 min 7 W/m 0,0 km/h (0 Bft) 100,00 %
04.04.2017 07:02 2,8 C 2,8 C 0,6 C 92 % 15 lf 1023,1 hPa 0,0 l/m 0 min 0 min 7 W/m 0,0 km/h (0 Bft) 100,00 %
04.04.2017 07:04 2,8 C 2,2 C 0,6 C 92 % 15 lf 1023,0 hPa 0,0 l/m 0 min 0 min 8 W/m 0,0 km/h (0 Bft) 100,00 %
04.04.2017 07:06 2,7 C 2,2 C 0,6 C 92 % 15 lf 1023,1 hPa 0,0 l/m 0 min 0 min 9 W/m 0,0 km/h (0 Bft) 100,00 %
04.04.2017 07:08 2,7 C 2,2 C 0,6 C 92 % 15 lf 1023,0 hPa 0,0 l/m 0 min 0 min 11 W/m 0,0 km/h (0 Bft) 100,00 %
04.04.2017 07:10 2,7 C 2,2 C 0,6 C 92 % 15 lf 1023,1 hPa 0,0 l/m 0 min 0 min 12 W/m 0,0 km/h (0 Bft) 100,00 %
04.04.2017 07:12 2,7 C 1,7 C 0,6 C 92 % 15 lf 1023,1 hPa 0,0 l/m 0 min 0 min 13 W/m 0,0 km/h (0 Bft) 100,00 %
04.04.2017 07:14 2,7 C 1,7 C 0,6 C 92 % 15 lf 1023,0 hPa 0,0 l/m 0 min 0 min 15 W/m 0,0 km/h (0 Bft) 97,87 %
04.04.2017 07:16 2,7 C 2,2 C 0,6 C 92 % 15 lf 1023,1 hPa 0,0 l/m 0 min 0 min 16 W/m 0,0 km/h (0 Bft) 97,83 %
04.04.2017 07:18 2,7 C 2,2 C 0,6 C 92 % 15 lf 1023,1 hPa 0,0 l/m 0 min 0 min 18 W/m 0,0 km/h (0 Bft) 93,62 %
04.04.2017 07:20 2,7 C 2,2 C 0,6 C 92 % 15 lf 1023,1 hPa 0,0 l/m 2 min 0 min 21 W/m 0,0 km/h (0 Bft) 97,87 %
04.04.2017 07:22 2,7 C 2,2 C 0,6 C 92 % 15 lf 1023,1 hPa 0,0 l/m 2 min 0 min 23 W/m 0,0 km/h (0 Bft) 91,49 %
04.04.2017 07:24 2,7 C 2,2 C 1,1 C 92 % 15 lf 1023,1 hPa 0,0 l/m 2 min 0 min 25 W/m 0,0 km/h (0 Bft) 95,74 %
04.04.2017 07:26 2,8 C 2,2 C 1,1 C 92 % 15 lf 1023,1 hPa 0,0 l/m 2 min 0 min 27 W/m 0,0 km/h (0 Bft) 95,65 %
04.04.2017 07:28 2,8 C 2,8 C 1,1 C 92 % 15 lf 1023,1 hPa 0,0 l/m 2 min 0 min 29 W/m 0,0 km/h (0 Bft) 95,74 %
04.04.2017 07:30 2,8 C 2,8 C 1,1 C 93 % 15 lf 1023,1 hPa 0,0 l/m 2 min 0 min 32 W/m 0,0 km/h (0 Bft) 95,74 %
04.04.2017 07:32 2,8 C 2,2 C 1,1 C 93 % 15 lf 1023,2 hPa 0,0 l/m 2 min 0 min 34 W/m 0,0 km/h (0 Bft) 95,74 %
04.04.2017 07:34 2,8 C 2,2 C 1,1 C 93 % 15 lf 1023,1 hPa 0,0 l/m 2 min 0 min 38 W/m 0,0 km/h (0 Bft) 93,62 %
04.04.2017 07:36 2,8 C 2,2 C 1,1 C 93 % 15 lf 1023,2 hPa 0,0 l/m 2 min 0 min 41 W/m 0,0 km/h (0 Bft) 93,62 %
04.04.2017 07:38 2,8 C 2,8 C 1,1 C 93 % 15 lf 1023,2 hPa 0,0 l/m 2 min 0 min 43 W/m 0,0 km/h (0 Bft) 95,65 %
04.04.2017 07:40 2,8 C 2,8 C 1,1 C 93 % 15 lf 1023,2 hPa 0,0 l/m 2 min 0 min 46 W/m 2,1 km/h (1 Bft) 91,49 %
04.04.2017 07:42 2,9 C 2,8 C 1,7 C 93 % 15 lf 1023,2 hPa 0,0 l/m 2 min 0 min 51 W/m 4,2 km/h (1 Bft) 93,62 %
04.04.2017 07:44 2,9 C 2,8 C 1,7 C 93 % 15 lf 1023,2 hPa 0,0 l/m 2 min 0 min 54 W/m 2,1 km/h (1 Bft) 97,87 %
04.04.2017 07:46 2,9 C 2,8 C 1,7 C 93 % 15 lf 1023,2 hPa 0,0 l/m 2 min 0 min 56 W/m 2,1 km/h (1 Bft) 93,62 %
04.04.2017 07:48 2,9 C 2,8 C 1,7 C 93 % 15 lf 1023,3 hPa 0,0 l/m 2 min 0 min 61 W/m 0,0 km/h (0 Bft) 95,74 %
04.04.2017 07:50 2,9 C 3,3 C 1,7 C 93 % 15 lf 1023,3 hPa 0,0 l/m 2 min 0 min 63 W/m 0,0 km/h (0 Bft) 95,65 %
04.04.2017 07:52 3,0 C 3,3 C 1,7 C 93 % 15 lf 1023,3 hPa 0,0 l/m 2 min 0 min 67 W/m 0,0 km/h (0 Bft) 93,62 %
04.04.2017 07:54 3,0 C 3,3 C 1,7 C 93 % 15 lf 1023,3 hPa 0,0 l/m 2 min 0 min 71 W/m 0,0 km/h (0 Bft) 95,74 %
04.04.2017 07:56 3,0 C 3,3 C 1,7 C 93 % 15 lf 1023,3 hPa 0,0 l/m 2 min 0 min 75 W/m 0,0 km/h (0 Bft) 93,62 %
04.04.2017 07:58 3,0 C 3,3 C 1,7 C 93 % 15 lf 1023,3 hPa 0,0 l/m 2 min 0 min 79 W/m 0,0 km/h (0 Bft) 97,87 %
04.04.2017 08:00 3,1 C 3,3 C 1,7 C 93 % 15 lf 1023,3 hPa 0,0 l/m 2 min 0 min 83 W/m 0,0 km/h (0 Bft) 97,87 %
04.04.2017 08:02 3,1 C 3,3 C 1,7 C 93 % 15 lf 1023,3 hPa 0,0 l/m 2 min 0 min 88 W/m 0,0 km/h (0 Bft) 93,48 %
04.04.2017 08:04 3,1 C 3,3 C 2,2 C 93 % 15 lf 1023,3 hPa 0,0 l/m 2 min 0 min 93 W/m 0,0 km/h (0 Bft) 91,49 %
04.04.2017 08:06 3,1 C 3,9 C 2,2 C 93 % 15 lf 1023,3 hPa 0,0 l/m 2 min 0 min 97 W/m 0,0 km/h (0 Bft) 95,74 %
04.04.2017 08:08 3,2 C 4,4 C 2,2 C 94 % 15 lf 1023,3 hPa 0,0 l/m 2 min 0 min 103 W/m 0,0 km/h (0 Bft) 95,74 %
04.04.2017 08:10 3,2 C 4,4 C 2,2 C 94 % 15 lf 1023,4 hPa 0,0 l/m 2 min 0 min 109 W/m 6,3 km/h (2 Bft) 91,49 %
04.04.2017 08:12 3,3 C 4,4 C 2,8 C 94 % 15 lf 1023,3 hPa 0,0 l/m 2 min 0 min 115 W/m 6,3 km/h (2 Bft) 97,78 %
04.04.2017 08:14 3,4 C 4,4 C 2,8 C 94 % 15 lf 1023,4 hPa 0,0 l/m 2 min 0 min 120 W/m 6,3 km/h (2 Bft) 95,74 %
04.04.2017 08:16 3,5 C 4,4 C 2,8 C 94 % 15 lf 1023,4 hPa 0,0 l/m 2 min 0 min 126 W/m 4,2 km/h (1 Bft) 97,87 %
04.04.2017 08:18 3,6 C 5,0 C 2,8 C 94 % 15 lf 1023,4 hPa 0,0 l/m 2 min 0 min 133 W/m 6,3 km/h (2 Bft) 95,74 %
04.04.2017 08:20 3,7 C 5,0 C 2,8 C 94 % 15 lf 1023,5 hPa 0,0 l/m 2 min 0 min 138 W/m 6,3 km/h (2 Bft) 93,62 %
04.04.2017 08:22 3,7 C 5,0 C 2,8 C 94 % 15 lf 1023,4 hPa 0,0 l/m 2 min 0 min 144 W/m 6,3 km/h (2 Bft) 91,49 %
04.04.2017 08:24 3,8 C 5,0 C 3,3 C 94 % 15 lf 1023,4 hPa 0,0 l/m 2 min 0 min 148 W/m 6,3 km/h (2 Bft) 97,83 %
04.04.2017 08:26 3,8 C 5,0 C 3,3 C 94 % 15 lf 1023,5 hPa 0,0 l/m 2 min 0 min 155 W/m 6,3 km/h (2 Bft) 89,36 %
04.04.2017 08:28 3,9 C 5,0 C 3,3 C 95 % 15 lf 1023,5 hPa 0,0 l/m 2 min 0 min 160 W/m 4,2 km/h (1 Bft) 93,62 %
04.04.2017 08:30 4,0 C 5,6 C 3,3 C 95 % 15 lf 1023,5 hPa 0,0 l/m 2 min 0 min 164 W/m 4,2 km/h (1 Bft) 95,74 %
04.04.2017 08:32 4,1 C 5,6 C 3,3 C 95 % 15 lf 1023,5 hPa 0,0 l/m 2 min 0 min 171 W/m 4,2 km/h (1 Bft) 94,00 %
04.04.2017 08:34 4,2 C 5,6 C 3,3 C 95 % 15 lf 1023,4 hPa 0,0 l/m 2 min 0 min 176 W/m 6,3 km/h (2 Bft) 95,74 %
04.04.2017 08:36 4,2 C 5,6 C 3,9 C 95 % 15 lf 1023,4 hPa 0,0 l/m 2 min 0 min 182 W/m 2,1 km/h (1 Bft) 93,48 %
04.04.2017 08:38 4,3 C 5,6 C 3,9 C 95 % 15 lf 1023,5 hPa 0,0 l/m 2 min 0 min 188 W/m 4,2 km/h (1 Bft) 93,62 %
04.04.2017 08:40 4,4 C 5,6 C 3,9 C 95 % 15 lf 1023,5 hPa 0,0 l/m 2 min 0 min 194 W/m 4,2 km/h (1 Bft) 95,74 %
04.04.2017 08:42 4,5 C 6,7 C 3,9 C 95 % 15 lf 1023,5 hPa 0,0 l/m 2 min 0 min 202 W/m 4,2 km/h (1 Bft) 91,49 %
04.04.2017 08:44 4,6 C 7,8 C 4,4 C 95 % 15 lf 1023,5 hPa 0,0 l/m 2 min 0 min 208 W/m 4,2 km/h (1 Bft) 93,62 %
04.04.2017 08:46 4,7 C 8,9 C 4,4 C 95 % 15 lf 1023,5 hPa 0,0 l/m 2 min 0 min 216 W/m 4,2 km/h (1 Bft) 93,48 %
04.04.2017 08:48 4,9 C 9,4 C 4,4 C 96 % 15 lf 1023,5 hPa 0,0 l/m 2 min 0 min 225 W/m 6,3 km/h (2 Bft) 93,62 %
04.04.2017 08:50 5,1 C 10,6 C 4,4 C 96 % 15 lf 1023,5 hPa 0,0 l/m 2 min 0 min 234 W/m 8,4 km/h (2 Bft) 95,74 %
04.04.2017 08:52 5,2 C 10,6 C 5,0 C 96 % 15 lf 1023,5 hPa 0,0 l/m 2 min 0 min 240 W/m 8,4 km/h (2 Bft) 93,88 %
04.04.2017 08:54 5,4 C 10,6 C 5,0 C 96 % 15 lf 1023,5 hPa 0,0 l/m 2 min 0 min 247 W/m 10,5 km/h (2 Bft) 93,62 %
04.04.2017 08:56 5,6 C 11,1 C 5,0 C 96 % 15 lf 1023,5 hPa 0,0 l/m 2 min 0 min 252 W/m 10,5 km/h (2 Bft) 95,74 %
04.04.2017 08:58 5,8 C 11,1 C 5,0 C 96 % 15 lf 1023,4 hPa 0,0 l/m 2 min 0 min 258 W/m 10,5 km/h (2 Bft) 95,65 %
04.04.2017 09:00 5,9 C 11,7 C 5,0 C 96 % 15 lf 1023,5 hPa 0,0 l/m 2 min 0 min 265 W/m 8,4 km/h (2 Bft) 95,74 %
04.04.2017 09:02 6,0 C 12,8 C 5,0 C 96 % 15 lf 1023,5 hPa 0,0 l/m 2 min 0 min 269 W/m 8,4 km/h (2 Bft) 95,74 %
04.04.2017 09:04 6,1 C 13,9 C 5,0 C 96 % 13 lf 1023,5 hPa 0,0 l/m 2 min 0 min 274 W/m 8,4 km/h (2 Bft) 95,74 %
04.04.2017 09:06 6,2 C 13,3 C 5,6 C 96 % 8 lf 1023,5 hPa 0,0 l/m 2 min 0 min 279 W/m 10,5 km/h (2 Bft) 97,87 %
04.04.2017 09:08 6,4 C 12,8 C 5,6 C 96 % 2 lf 1023,4 hPa 0,0 l/m 2 min 0 min 283 W/m 6,3 km/h (2 Bft) 95,74 %
04.04.2017 09:10 6,4 C 14,4 C 5,6 C 96 % 0 lf 1023,4 hPa 0,0 l/m 2 min 0 min 288 W/m 6,3 km/h (2 Bft) 95,65 %
04.04.2017 09:12 6,6 C 14,4 C 5,6 C 96 % 0 lf 1023,4 hPa 0,0 l/m 2 min 0 min 296 W/m 8,4 km/h (2 Bft) 100,00 %
04.04.2017 09:14 6,7 C 14,4 C 5,6 C 96 % 0 lf 1023,4 hPa 0,0 l/m 2 min 0 min 301 W/m 6,3 km/h (2 Bft) 100,00 %
04.04.2017 09:16 6,8 C 16,1 C 5,6 C 97 % 0 lf 1023,4 hPa 0,0 l/m 2 min 0 min 307 W/m 8,4 km/h (2 Bft) 97,87 %
04.04.2017 09:18 6,9 C 16,1 C 6,1 C 97 % 0 lf 1023,4 hPa 0,0 l/m 2 min 0 min 314 W/m 6,3 km/h (2 Bft) 97,87 %
04.04.2017 09:20 7,1 C 15,0 C 6,1 C 96 % 0 lf 1023,4 hPa 0,0 l/m 2 min 0 min 323 W/m 6,3 km/h (2 Bft) 97,87 %
04.04.2017 09:22 7,3 C 15,6 C 6,1 C 97 % 0 lf 1023,4 hPa 0,0 l/m 2 min 0 min 330 W/m 6,3 km/h (2 Bft) 97,83 %
04.04.2017 09:24 7,4 C 15,0 C 6,7 C 97 % 0 lf 1023,4 hPa 0,0 l/m 2 min 0 min 337 W/m 10,5 km/h (2 Bft) 95,74 %
04.04.2017 09:26 7,6 C 15,6 C 6,7 C 97 % 0 lf 1023,4 hPa 0,0 l/m 2 min 0 min 341 W/m 8,4 km/h (2 Bft) 95,74 %
04.04.2017 09:28 7,7 C 16,1 C 6,7 C 97 % 0 lf 1023,5 hPa 0,0 l/m 2 min 0 min 347 W/m 8,4 km/h (2 Bft) 97,87 %
04.04.2017 09:30 7,9 C 16,1 C 6,7 C 97 % 0 lf 1023,5 hPa 0,0 l/m 2 min 0 min 352 W/m 10,5 km/h (2 Bft) 95,74 %
04.04.2017 09:32 8,0 C 16,1 C 6,7 C 97 % 0 lf 1023,5 hPa 0,0 l/m 2 min 0 min 360 W/m 10,5 km/h (2 Bft) 95,74 %
04.04.2017 09:34 8,1 C 13,9 C 6,7 C 97 % 0 lf 1023,5 hPa 0,0 l/m 2 min 0 min 367 W/m 12,6 km/h (3 Bft) 97,83 %
04.04.2017 09:36 8,2 C 15,6 C 6,7 C 97 % 0 lf 1023,5 hPa 0,0 l/m 2 min 0 min 373 W/m 6,3 km/h (2 Bft) 95,74 %
04.04.2017 09:38 8,3 C 16,1 C 6,7 C 97 % 0 lf 1023,5 hPa 0,0 l/m 2 min 0 min 377 W/m 12,6 km/h (3 Bft) 95,74 %
04.04.2017 09:40 8,4 C 16,1 C 6,7 C 96 % 0 lf 1023,5 hPa 0,0 l/m 2 min 0 min 379 W/m 8,4 km/h (2 Bft) 93,62 %
04.04.2017 09:42 8,6 C 15,6 C 7,2 C 96 % 0 lf 1023,6 hPa 0,0 l/m 2 min 0 min 383 W/m 8,4 km/h (2 Bft) 93,62 %
04.04.2017 09:44 8,7 C 17,2 C 7,8 C 96 % 0 lf 1023,5 hPa 0,0 l/m 2 min 0 min 388 W/m 6,3 km/h (2 Bft) 97,83 %
04.04.2017 09:46 8,9 C 17,8 C 7,8 C 96 % 0 lf 1023,6 hPa 0,0 l/m 2 min 0 min 393 W/m 6,3 km/h (2 Bft) 95,74 %
04.04.2017 09:48 9,0 C 16,1 C 8,3 C 95 % 0 lf 1023,5 hPa 0,0 l/m 2 min 0 min 399 W/m 12,6 km/h (3 Bft) 97,87 %
04.04.2017 09:50 9,1 C 15,6 C 8,9 C 95 % 0 lf 1023,5 hPa 0,0 l/m 2 min 0 min 404 W/m 16,7 km/h (3 Bft) 97,87 %
04.04.2017 09:52 9,3 C 15,0 C 9,4 C 94 % 0 lf 1023,6 hPa 0,0 l/m 2 min 0 min 409 W/m 8,4 km/h (2 Bft) 97,87 %
04.04.2017 09:54 9,4 C 16,1 C 9,4 C 94 % 0 lf 1023,5 hPa 0,0 l/m 2 min 0 min 414 W/m 8,4 km/h (2 Bft) 89,36 %
04.04.2017 09:56 9,6 C 17,2 C 10,0 C 92 % 0 lf 1023,6 hPa 0,0 l/m 2 min 0 min 421 W/m 8,4 km/h (2 Bft) 97,83 %
04.04.2017 09:58 9,7 C 18,3 C 10,6 C 92 % 0 lf 1023,6 hPa 0,0 l/m 2 min 0 min 427 W/m 8,4 km/h (2 Bft) 97,87 %
04.04.2017 10:00 9,8 C 18,3 C 11,7 C 91 % 0 lf 1023,6 hPa 0,0 l/m 2 min 0 min 431 W/m 8,4 km/h (2 Bft) 100,00 %
04.04.2017 10:02 10,0 C 17,2 C 12,2 C 90 % 0 lf 1023,6 hPa 0,0 l/m 2 min 0 min 436 W/m 10,5 km/h (2 Bft) 95,74 %
04.04.2017 10:04 10,2 C 17,2 C 13,3 C 89 % 0 lf 1023,6 hPa 0,0 l/m 2 min 0 min 443 W/m 6,3 km/h (2 Bft) 100,00 %
04.04.2017 10:06 10,3 C 17,8 C 13,9 C 88 % 0 lf 1023,5 hPa 0,0 l/m 2 min 0 min 448 W/m 6,3 km/h (2 Bft) 100,00 %
04.04.2017 10:08 10,4 C 18,9 C 13,9 C 87 % 0 lf 1023,6 hPa 0,0 l/m 2 min 0 min 454 W/m 8,4 km/h (2 Bft) 95,65 %
04.04.2017 10:10 10,6 C 19,4 C 14,4 C 86 % 0 lf 1023,6 hPa 0,0 l/m 2 min 0 min 457 W/m 8,4 km/h (2 Bft) 100,00 %
04.04.2017 10:12 10,8 C 20,0 C 15,0 C 86 % 0 lf 1023,5 hPa 0,0 l/m 2 min 0 min 462 W/m 12,6 km/h (3 Bft) 97,87 %
04.04.2017 10:14 10,9 C 21,1 C 15,6 C 85 % 0 lf 1023,6 hPa 0,0 l/m 2 min 0 min 466 W/m 6,3 km/h (2 Bft) 100,00 %
04.04.2017 10:16 11,1 C 18,9 C 16,1 C 85 % 0 lf 1023,6 hPa 0,0 l/m 2 min 0 min 484 W/m 6,3 km/h (2 Bft) 97,87 %
04.04.2017 10:18 11,2 C 20,6 C 15,6 C 84 % 0 lf 1023,6 hPa 0,0 l/m 2 min 0 min 506 W/m 4,2 km/h (1 Bft) 100,00 %
04.04.2017 10:20 11,4 C 19,4 C 16,1 C 83 % 0 lf 1023,6 hPa 0,0 l/m 2 min 0 min 514 W/m 8,4 km/h (2 Bft) 100,00 %
04.04.2017 10:22 11,6 C 20,0 C 16,1 C 82 % 0 lf 1023,6 hPa 0,0 l/m 2 min 0 min 502 W/m 6,3 km/h (2 Bft) 97,87 %
04.04.2017 10:24 11,7 C 20,0 C 16,1 C 81 % 0 lf 1023,6 hPa 0,0 l/m 2 min 0 min 495 W/m 8,4 km/h (2 Bft) 97,87 %
04.04.2017 10:26 11,9 C 19,4 C 16,1 C 80 % 0 lf 1023,6 hPa 0,0 l/m 2 min 0 min 498 W/m 8,4 km/h (2 Bft) 97,87 %
04.04.2017 10:28 12,0 C 20,6 C 16,1 C 80 % 0 lf 1023,6 hPa 0,0 l/m 2 min 0 min 502 W/m 6,3 km/h (2 Bft) 97,87 %
04.04.2017 10:30 12,1 C 20,0 C 16,7 C 79 % 0 lf 1023,6 hPa 0,0 l/m 2 min 0 min 507 W/m 6,3 km/h (2 Bft) 95,74 %
04.04.2017 10:32 12,2 C 21,7 C 16,1 C 78 % 0 lf 1023,6 hPa 0,0 l/m 2 min 0 min 511 W/m 6,3 km/h (2 Bft) 95,65 %
04.04.2017 10:34 12,3 C 18,9 C 16,7 C 78 % 0 lf 1023,6 hPa 0,0 l/m 2 min 0 min 513 W/m 8,4 km/h (2 Bft) 97,87 %
04.04.2017 10:36 12,4 C 18,3 C 17,2 C 77 % 0 lf 1023,5 hPa 0,0 l/m 2 min 0 min 515 W/m 8,4 km/h (2 Bft) 97,87 %
04.04.2017 10:38 12,5 C 17,8 C 17,2 C 76 % 0 lf 1023,6 hPa 0,0 l/m 2 min 0 min 517 W/m 8,4 km/h (2 Bft) 95,74 %
04.04.2017 10:40 12,6 C 17,8 C 17,2 C 76 % 0 lf 1023,6 hPa 0,0 l/m 2 min 0 min 525 W/m 8,4 km/h (2 Bft) 97,87 %
04.04.2017 10:42 12,7 C 18,9 C 16,7 C 75 % 0 lf 1023,6 hPa 0,0 l/m 2 min 0 min 534 W/m 8,4 km/h (2 Bft) 95,74 %
04.04.2017 10:44 12,7 C 20,6 C 16,7 C 75 % 0 lf 1023,6 hPa 0,0 l/m 2 min 0 min 537 W/m 6,3 km/h (2 Bft) 95,65 %
04.04.2017 10:46 12,8 C 20,0 C 16,1 C 74 % 0 lf 1023,7 hPa 0,0 l/m 2 min 0 min 538 W/m 4,2 km/h (1 Bft) 95,74 %
04.04.2017 10:48 12,9 C 21,1 C 15,0 C 73 % 0 lf 1023,7 hPa 0,0 l/m 2 min 0 min 541 W/m 4,2 km/h (1 Bft) 95,74 %
04.04.2017 10:50 12,9 C 20,6 C 14,4 C 73 % 0 lf 1023,7 hPa 0,0 l/m 2 min 0 min 548 W/m 6,3 km/h (2 Bft) 89,36 %
04.04.2017 10:52 13,0 C 22,8 C 13,9 C 73 % 0 lf 1023,7 hPa 0,0 l/m 2 min 0 min 555 W/m 4,2 km/h (1 Bft) 93,62 %
04.04.2017 10:54 13,1 C 22,8 C 14,4 C 73 % 0 lf 1023,7 hPa 0,0 l/m 2 min 0 min 560 W/m 4,2 km/h (1 Bft) 95,74 %
04.04.2017 10:56 13,2 C 23,3 C 15,0 C 74 % 0 lf 1023,7 hPa 0,0 l/m 2 min 0 min 563 W/m 6,3 km/h (2 Bft) 95,65 %
04.04.2017 10:58 13,3 C 23,3 C 15,6 C 74 % 0 lf 1023,7 hPa 0,0 l/m 2 min 0 min 564 W/m 8,4 km/h (2 Bft) 93,62 %
04.04.2017 11:00 13,4 C 23,9 C 17,2 C 74 % 0 lf 1023,7 hPa 0,0 l/m 2 min 0 min 566 W/m 4,2 km/h (1 Bft) 93,62 %
04.04.2017 11:02 13,6 C 25,0 C 17,8 C 74 % 0 lf 1023,8 hPa 0,0 l/m 2 min 0 min 573 W/m 6,3 km/h (2 Bft) 97,87 %
04.04.2017 11:04 13,7 C 24,4 C 18,9 C 74 % 0 lf 1023,8 hPa 0,0 l/m 2 min 0 min 578 W/m 10,5 km/h (2 Bft) 91,49 %
04.04.2017 11:06 13,8 C 25,0 C 18,9 C 74 % 0 lf 1023,8 hPa 0,0 l/m 2 min 0 min 583 W/m 6,3 km/h (2 Bft) 95,65 %
04.04.2017 11:08 13,9 C 26,7 C 18,9 C 74 % 0 lf 1023,8 hPa 0,0 l/m 2 min 0 min 584 W/m 6,3 km/h (2 Bft) 93,62 %
04.04.2017 11:10 14,0 C 27,2 C 18,3 C 73 % 0 lf 1023,7 hPa 0,0 l/m 2 min 0 min 584 W/m 6,3 km/h (2 Bft) 93,62 %
04.04.2017 11:12 14,1 C 28,3 C 18,3 C 72 % 0 lf 1023,7 hPa 0,0 l/m 2 min 0 min 588 W/m 8,4 km/h (2 Bft) 95,74 %
04.04.2017 11:14 14,2 C 26,1 C 18,9 C 72 % 0 lf 1023,7 hPa 0,0 l/m 2 min 0 min 599 W/m 6,3 km/h (2 Bft) 97,87 %
04.04.2017 11:16 14,2 C 27,2 C 19,4 C 71 % 0 lf 1023,8 hPa 0,0 l/m 2 min 0 min 602 W/m 8,4 km/h (2 Bft) 95,74 %
04.04.2017 11:18 14,2 C 27,2 C 20,0 C 72 % 0 lf 1023,7 hPa 0,0 l/m 2 min 0 min 600 W/m 6,3 km/h (2 Bft) 95,65 %
04.04.2017 11:20 14,2 C 27,2 C 20,0 C 72 % 0 lf 1023,8 hPa 0,0 l/m 2 min 0 min 603 W/m 6,3 km/h (2 Bft) 95,74 %
04.04.2017 11:22 14,4 C 26,1 C 20,0 C 72 % 0 lf 1023,8 hPa 0,0 l/m 2 min 0 min 609 W/m 4,2 km/h (1 Bft) 100,00 %
04.04.2017 11:24 14,4 C 21,7 C 20,0 C 70 % 0 lf 1023,8 hPa 0,0 l/m 2 min 0 min 611 W/m 4,2 km/h (1 Bft) 95,74 %
04.04.2017 11:26 14,5 C 20,0 C 20,0 C 68 % 0 lf 1023,8 hPa 0,0 l/m 2 min 0 min 617 W/m 6,3 km/h (2 Bft) 95,74 %
04.04.2017 11:28 14,5 C 21,7 C 20,6 C 68 % 0 lf 1023,8 hPa 0,0 l/m 2 min 0 min 619 W/m 4,2 km/h (1 Bft) 97,87 %
04.04.2017 11:30 14,6 C 21,1 C 20,0 C 67 % 0 lf 1023,7 hPa 0,0 l/m 2 min 0 min 609 W/m 6,3 km/h (2 Bft) 97,83 %
04.04.2017 11:32 14,6 C 22,8 C 20,0 C 67 % 0 lf 1023,7 hPa 0,0 l/m 2 min 0 min 605 W/m 4,2 km/h (1 Bft) 93,62 %
04.04.2017 11:34 14,7 C 24,4 C 20,6 C 68 % 0 lf 1023,8 hPa 0,0 l/m 2 min 0 min 606 W/m 2,1 km/h (1 Bft) 93,62 %
04.04.2017 11:36 14,7 C 25,0 C 20,6 C 68 % 0 lf 1023,7 hPa 0,0 l/m 2 min 0 min 597 W/m 8,4 km/h (2 Bft) 91,49 %
04.04.2017 11:38 14,8 C 25,6 C 18,9 C 67 % 0 lf 1023,8 hPa 0,0 l/m 2 min 0 min 597 W/m 10,5 km/h (2 Bft) 95,74 %
04.04.2017 11:40 14,8 C 25,6 C 18,3 C 66 % 0 lf 1023,7 hPa 0,0 l/m 2 min 0 min 624 W/m 10,5 km/h (2 Bft) 95,74 %
04.04.2017 11:42 14,8 C 23,3 C 19,4 C 66 % 0 lf 1023,8 hPa 0,0 l/m 2 min 0 min 631 W/m 6,3 km/h (2 Bft) 95,65 %
04.04.2017 11:44 14,8 C 21,7 C 20,0 C 66 % 0 lf 1023,8 hPa 0,0 l/m 2 min 0 min 634 W/m 6,3 km/h (2 Bft) 93,62 %
04.04.2017 11:46 14,8 C 23,3 C 20,0 C 66 % 0 lf 1023,8 hPa 0,0 l/m 2 min 0 min 647 W/m 10,5 km/h (2 Bft) 93,62 %
04.04.2017 11:48 14,8 C 25,0 C 19,4 C 64 % 0 lf 1023,7 hPa 0,0 l/m 2 min 0 min 654 W/m 8,4 km/h (2 Bft) 95,74 %
04.04.2017 11:50 14,8 C 26,1 C 19,4 C 64 % 0 lf 1023,8 hPa 0,0 l/m 2 min 0 min 656 W/m 10,5 km/h (2 Bft) 93,62 %
04.04.2017 11:52 14,9 C 26,1 C 20,0 C 64 % 0 lf 1023,7 hPa 0,0 l/m 2 min 0 min 658 W/m 8,4 km/h (2 Bft) 95,74 %
04.04.2017 11:54 14,9 C 26,7 C 18,9 C 62 % 0 lf 1023,7 hPa 0,0 l/m 2 min 0 min 660 W/m 10,5 km/h (2 Bft) 97,83 %
04.04.2017 11:56 14,9 C 26,1 C 18,9 C 62 % 0 lf 1023,7 hPa 0,0 l/m 2 min 0 min 667 W/m 10,5 km/h (2 Bft) 97,87 %
04.04.2017 11:58 14,9 C 26,1 C 18,3 C 62 % 0 lf 1023,7 hPa 0,0 l/m 2 min 0 min 672 W/m 6,3 km/h (2 Bft) 95,74 %
04.04.2017 12:00 14,9 C 27,2 C 19,4 C 63 % 0 lf 1023,7 hPa 0,0 l/m 2 min 0 min 671 W/m 6,3 km/h (2 Bft) 93,62 %
04.04.2017 12:02 14,9 C 27,2 C 19,4 C 63 % 0 lf 1023,6 hPa 0,0 l/m 2 min 0 min 672 W/m 10,5 km/h (2 Bft) 95,74 %
04.04.2017 12:04 14,9 C 25,6 C 19,4 C 62 % 0 lf 1023,6 hPa 0,0 l/m 2 min 0 min 681 W/m 12,6 km/h (3 Bft) 95,74 %
04.04.2017 12:06 14,9 C 26,1 C 19,4 C 62 % 0 lf 1023,6 hPa 0,0 l/m 2 min 0 min 688 W/m 14,6 km/h (3 Bft) 93,48 %
04.04.2017 12:08 15,0 C 26,1 C 18,9 C 63 % 0 lf 1023,6 hPa 0,0 l/m 2 min 0 min 692 W/m 12,6 km/h (3 Bft) 95,74 %
04.04.2017 12:10 14,9 C 25,6 C 18,3 C 61 % 0 lf 1023,6 hPa 0,0 l/m 2 min 0 min 697 W/m 12,6 km/h (3 Bft) 95,83 %
04.04.2017 12:12 14,9 C 25,6 C 17,2 C 61 % 0 lf 1023,6 hPa 0,0 l/m 2 min 0 min 701 W/m 8,4 km/h (2 Bft) 91,49 %
04.04.2017 12:14 14,9 C 25,0 C 17,8 C 61 % 0 lf 1023,6 hPa 0,0 l/m 2 min 0 min 713 W/m 14,6 km/h (3 Bft) 95,74 %
04.04.2017 12:16 14,9 C 24,4 C 18,3 C 62 % 0 lf 1023,5 hPa 0,0 l/m 2 min 0 min 715 W/m 12,6 km/h (3 Bft) 95,65 %
04.04.2017 12:18 15,0 C 23,9 C 19,4 C 62 % 0 lf 1023,6 hPa 0,0 l/m 2 min 0 min 720 W/m 18,8 km/h (3 Bft) 97,87 %
04.04.2017 12:20 15,1 C 23,9 C 19,4 C 62 % 0 lf 1023,6 hPa 0,0 l/m 2 min 0 min 726 W/m 12,6 km/h (3 Bft) 97,87 %
04.04.2017 12:22 15,2 C 22,8 C 18,9 C 60 % 0 lf 1023,6 hPa 0,0 l/m 2 min 0 min 700 W/m 18,8 km/h (3 Bft) 97,87 %
04.04.2017 12:24 15,3 C 22,2 C 18,9 C 60 % 0 lf 1023,6 hPa 0,0 l/m 2 min 0 min 569 W/m 12,6 km/h (3 Bft) 97,87 %
04.04.2017 12:26 15,4 C 21,7 C 18,3 C 60 % 0 lf 1023,6 hPa 0,0 l/m 2 min 0 min 434 W/m 10,5 km/h (2 Bft) 95,74 %
04.04.2017 12:28 15,4 C 22,2 C 17,8 C 59 % 0 lf 1023,6 hPa 0,0 l/m 2 min 0 min 365 W/m 10,5 km/h (2 Bft) 95,65 %
04.04.2017 12:30 15,5 C 22,2 C 17,2 C 58 % 0 lf 1023,5 hPa 0,0 l/m 2 min 0 min 412 W/m 6,3 km/h (2 Bft) 97,87 %
04.04.2017 12:32 15,6 C 23,9 C 17,8 C 59 % 0 lf 1023,5 hPa 0,0 l/m 2 min 0 min 491 W/m 6,3 km/h (2 Bft) 97,87 %
04.04.2017 12:34 15,6 C 25,0 C 17,2 C 59 % 0 lf 1023,6 hPa 0,0 l/m 2 min 0 min 742 W/m 6,3 km/h (2 Bft) 97,87 %
04.04.2017 12:36 15,7 C 26,7 C 16,7 C 59 % 0 lf 1023,6 hPa 0,0 l/m 2 min 0 min 735 W/m 8,4 km/h (2 Bft) 95,74 %
04.04.2017 12:38 15,7 C 25,6 C 16,7 C 59 % 0 lf 1023,5 hPa 0,0 l/m 2 min 0 min 750 W/m 10,5 km/h (2 Bft) 97,87 %
04.04.2017 12:40 15,8 C 25,0 C 17,2 C 60 % 0 lf 1023,5 hPa 0,0 l/m 2 min 0 min 763 W/m 10,5 km/h (2 Bft) 93,48 %
04.04.2017 12:42 15,8 C 25,0 C 17,8 C 61 % 0 lf 1023,5 hPa 0,0 l/m 2 min 0 min 762 W/m 6,3 km/h (2 Bft) 97,87 %
04.04.2017 12:44 15,9 C 26,1 C 17,8 C 60 % 0 lf 1023,5 hPa 0,0 l/m 2 min 0 min 768 W/m 10,5 km/h (2 Bft) 97,87 %
04.04.2017 12:46 16,0 C 25,6 C 17,2 C 58 % 0 lf 1023,5 hPa 0,0 l/m 2 min 0 min 749 W/m 16,7 km/h (3 Bft) 97,87 %
04.04.2017 12:48 16,0 C 25,6 C 16,7 C 58 % 0 lf 1023,5 hPa 0,0 l/m 2 min 0 min 759 W/m 14,6 km/h (3 Bft) 100,00 %
04.04.2017 12:50 15,9 C 26,1 C 16,7 C 57 % 0 lf 1023,5 hPa 0,0 l/m 2 min 0 min 722 W/m 8,4 km/h (2 Bft) 100,00 %
04.04.2017 12:52 15,9 C 25,0 C 16,1 C 57 % 0 lf 1023,5 hPa 0,0 l/m 2 min 0 min 766 W/m 10,5 km/h (2 Bft) 100,00 %
04.04.2017 12:54 15,9 C 23,9 C 15,6 C 57 % 0 lf 1023,5 hPa 0,0 l/m 2 min 0 min 544 W/m 6,3 km/h (2 Bft) 100,00 %
04.04.2017 12:56 15,8 C 24,4 C 15,6 C 58 % 0 lf 1023,5 hPa 0,0 l/m 2 min 0 min 429 W/m 12,6 km/h (3 Bft) 100,00 %
04.04.2017 12:58 15,8 C 25,0 C 15,6 C 58 % 0 lf 1023,5 hPa 0,0 l/m 2 min 0 min 566 W/m 10,5 km/h (2 Bft) 93,62 %
04.04.2017 13:00 15,7 C 26,1 C 16,1 C 58 % 0 lf 1023,5 hPa 0,0 l/m 2 min 0 min 746 W/m 6,3 km/h (2 Bft) 100,00 %
04.04.2017 13:02 15,7 C 26,1 C 16,7 C 57 % 0 lf 1023,5 hPa 0,0 l/m 2 min 0 min 737 W/m 12,6 km/h (3 Bft) 100,00 %
04.04.2017 13:04 15,7 C 26,1 C 16,7 C 57 % 0 lf 1023,5 hPa 0,0 l/m 2 min 0 min 759 W/m 14,6 km/h (3 Bft) 100,00 %
04.04.2017 13:06 15,6 C 27,2 C 16,1 C 58 % 0 lf 1023,5 hPa 0,0 l/m 2 min 0 min 766 W/m 12,6 km/h (3 Bft) 97,87 %
04.04.2017 13:08 15,6 C 26,1 C 16,1 C 58 % 0 lf 1023,5 hPa 0,0 l/m 2 min 0 min 763 W/m 14,6 km/h (3 Bft) 95,74 %
04.04.2017 13:10 15,6 C 26,1 C 15,6 C 58 % 0 lf 1023,5 hPa 0,0 l/m 2 min 0 min 764 W/m 14,6 km/h (3 Bft) 95,74 %
04.04.2017 13:12 15,6 C 26,1 C 15,0 C 57 % 0 lf 1023,5 hPa 0,0 l/m 2 min 0 min 767 W/m 10,5 km/h (2 Bft) 97,87 %
04.04.2017 13:14 15,6 C 27,2 C 15,6 C 58 % 0 lf 1023,5 hPa 0,0 l/m 2 min 0 min 767 W/m 6,3 km/h (2 Bft) 93,62 %
04.04.2017 13:16 15,6 C 26,1 C 16,7 C 59 % 0 lf 1023,5 hPa 0,0 l/m 2 min 0 min 775 W/m 8,4 km/h (2 Bft) 97,83 %
04.04.2017 13:18 15,7 C 25,0 C 16,7 C 59 % 0 lf 1023,5 hPa 0,0 l/m 2 min 0 min 795 W/m 6,3 km/h (2 Bft) 95,74 %
04.04.2017 13:20 15,8 C 24,4 C 17,2 C 58 % 0 lf 1023,4 hPa 0,0 l/m 2 min 0 min 814 W/m 8,4 km/h (2 Bft) 97,87 %
04.04.2017 13:22 15,9 C 25,0 C 17,8 C 60 % 0 lf 1023,4 hPa 0,0 l/m 2 min 0 min 815 W/m 8,4 km/h (2 Bft) 97,14 %
04.04.2017 13:24 16,0 C 24,4 C 17,8 C 59 % 0 lf 1023,4 hPa 0,0 l/m 2 min 0 min 815 W/m 12,6 km/h (3 Bft) 97,87 %
04.04.2017 13:26 16,2 C 23,9 C 17,8 C 59 % 0 lf 1023,4 hPa 0,0 l/m 2 min 0 min 800 W/m 8,4 km/h (2 Bft) 95,74 %
04.04.2017 13:28 16,3 C 25,6 C 17,2 C 58 % 0 lf 1023,3 hPa 0,0 l/m 2 min 0 min 790 W/m 6,3 km/h (2 Bft) 97,87 %
04.04.2017 13:30 16,4 C 26,7 C 16,1 C 57 % 0 lf 1023,3 hPa 0,0 l/m 2 min 0 min 778 W/m 12,6 km/h (3 Bft) 95,74 %
04.04.2017 13:32 16,4 C 28,3 C 15,6 C 56 % 0 lf 1023,3 hPa 0,0 l/m 2 min 0 min 772 W/m 10,5 km/h (2 Bft) 95,65 %
04.04.2017 13:34 16,4 C 27,2 C 15,0 C 57 % 0 lf 1023,3 hPa 0,0 l/m 2 min 0 min 795 W/m 14,6 km/h (3 Bft) 95,74 %
04.04.2017 13:36 16,4 C 26,7 C 15,0 C 56 % 0 lf 1023,3 hPa 0,0 l/m 2 min 0 min 783 W/m 14,6 km/h (3 Bft) 98,11 %
04.04.2017 13:38 16,4 C 27,2 C 15,6 C 57 % 0 lf 1023,3 hPa 0,0 l/m 2 min 0 min 792 W/m 10,5 km/h (2 Bft) 95,74 %
04.04.2017 13:40 16,4 C 25,6 C 16,1 C 57 % 0 lf 1023,3 hPa 0,0 l/m 2 min 0 min 776 W/m 8,4 km/h (2 Bft) 97,83 %
04.04.2017 13:42 16,5 C 26,1 C 16,1 C 57 % 0 lf 1023,3 hPa 0,0 l/m 2 min 0 min 754 W/m 14,6 km/h (3 Bft) 97,87 %
04.04.2017 13:44 16,6 C 27,8 C 16,7 C 58 % 0 lf 1023,2 hPa 0,0 l/m 2 min 0 min 758 W/m 12,6 km/h (3 Bft) 97,87 %
04.04.2017 13:46 16,7 C 28,3 C 16,7 C 58 % 0 lf 1023,3 hPa 0,0 l/m 2 min 0 min 778 W/m 14,6 km/h (3 Bft) 97,56 %
04.04.2017 13:48 16,7 C 27,8 C 16,1 C 57 % 0 lf 1023,3 hPa 0,0 l/m 2 min 0 min 787 W/m 14,6 km/h (3 Bft) 95,74 %
04.04.2017 13:50 16,7 C 27,2 C 15,6 C 55 % 0 lf 1023,2 hPa 0,0 l/m 2 min 0 min 796 W/m 16,7 km/h (3 Bft) 93,85 %
04.04.2017 13:52 16,7 C 26,7 C 15,6 C 55 % 0 lf 1023,2 hPa 0,0 l/m 2 min 0 min 805 W/m 14,6 km/h (3 Bft) 97,14 %
04.04.2017 13:54 16,7 C 26,7 C 16,1 C 57 % 0 lf 1023,2 hPa 0,0 l/m 2 min 0 min 812 W/m 16,7 km/h (3 Bft) 100,00 %
04.04.2017 13:56 16,7 C 26,7 C 16,1 C 55 % 0 lf 1023,2 hPa 0,0 l/m 2 min 0 min 824 W/m 14,6 km/h (3 Bft) 100,00 %
04.04.2017 13:58 16,8 C 27,8 C 16,1 C 55 % 0 lf 1023,2 hPa 0,0 l/m 2 min 0 min 829 W/m 12,6 km/h (3 Bft) 95,74 %
04.04.2017 14:00 16,8 C 27,8 C 16,1 C 55 % 0 lf 1023,1 hPa 0,0 l/m 2 min 0 min 829 W/m 10,5 km/h (2 Bft) 93,62 %
04.04.2017 14:02 16,8 C 28,9 C 16,7 C 56 % 0 lf 1023,1 hPa 0,0 l/m 2 min 0 min 814 W/m 6,3 km/h (2 Bft) 92,68 %
04.04.2017 14:04 16,9 C 28,3 C 16,7 C 56 % 0 lf 1023,1 hPa 0,0 l/m 2 min 0 min 803 W/m 4,2 km/h (1 Bft) 97,87 %
04.04.2017 14:06 16,9 C 26,1 C 16,7 C 56 % 0 lf 1023,1 hPa 0,0 l/m 2 min 0 min 535 W/m 12,6 km/h (3 Bft) 98,08 %
04.04.2017 14:08 16,9 C 24,4 C 16,1 C 54 % 0 lf 1023,0 hPa 0,0 l/m 2 min 0 min 403 W/m 16,7 km/h (3 Bft) 95,74 %
04.04.2017 14:10 16,8 C 21,7 C 15,6 C 54 % 0 lf 1023,0 hPa 0,0 l/m 0 min 0 min 206 W/m 16,7 km/h (3 Bft) 95,74 %
04.04.2017 14:12 16,7 C 19,4 C 14,4 C 54 % 0 lf 1023,0 hPa 0,0 l/m 0 min 0 min 189 W/m 12,6 km/h (3 Bft) 95,74 %
04.04.2017 14:14 16,6 C 18,9 C 14,4 C 53 % 0 lf 1023,0 hPa 0,0 l/m 0 min 0 min 165 W/m 6,3 km/h (2 Bft) 95,74 %
04.04.2017 14:16 16,4 C 17,8 C 14,4 C 53 % 0 lf 1023,0 hPa 0,0 l/m 0 min 0 min 150 W/m 8,4 km/h (2 Bft) 97,50 %
04.04.2017 14:18 16,3 C 17,2 C 13,9 C 52 % 0 lf 1023,1 hPa 0,0 l/m 0 min 0 min 149 W/m 14,6 km/h (3 Bft) 97,83 %
04.04.2017 14:20 16,2 C 17,2 C 13,9 C 52 % 0 lf 1023,0 hPa 0,0 l/m 0 min 0 min 162 W/m 12,6 km/h (3 Bft) 98,31 %
04.04.2017 14:22 16,0 C 17,2 C 14,4 C 52 % 0 lf 1023,1 hPa 0,0 l/m 0 min 0 min 179 W/m 8,4 km/h (2 Bft) 88,57 %
04.04.2017 14:24 15,9 C 18,9 C 14,4 C 53 % 0 lf 1023,0 hPa 0,0 l/m 0 min 0 min 196 W/m 8,4 km/h (2 Bft) 95,74 %
04.04.2017 14:26 15,9 C 22,2 C 15,0 C 54 % 0 lf 1023,0 hPa 0,0 l/m 2 min 0 min 699 W/m 6,3 km/h (2 Bft) 94,34 %
04.04.2017 14:28 15,9 C 25,0 C 15,6 C 55 % 0 lf 1023,0 hPa 0,0 l/m 2 min 0 min 777 W/m 8,4 km/h (2 Bft) 95,65 %
04.04.2017 14:30 15,9 C 26,1 C 15,6 C 52 % 0 lf 1023,0 hPa 0,0 l/m 2 min 0 min 777 W/m 8,4 km/h (2 Bft) 93,62 %
04.04.2017 14:32 15,9 C 27,2 C 15,6 C 52 % 0 lf 1022,9 hPa 0,0 l/m 2 min 0 min 781 W/m 6,3 km/h (2 Bft) 92,68 %
04.04.2017 14:34 15,9 C 28,9 C 16,7 C 53 % 0 lf 1022,9 hPa 0,0 l/m 2 min 0 min 816 W/m 4,2 km/h (1 Bft) 95,74 %
04.04.2017 14:36 16,0 C 28,3 C 17,2 C 54 % 0 lf 1022,9 hPa 0,0 l/m 2 min 0 min 828 W/m 4,2 km/h (1 Bft) 91,49 %
04.04.2017 14:38 16,2 C 28,3 C 17,8 C 55 % 0 lf 1022,9 hPa 0,0 l/m 2 min 0 min 821 W/m 12,6 km/h (3 Bft) 93,62 %
04.04.2017 14:40 16,3 C 28,9 C 17,8 C 54 % 0 lf 1022,9 hPa 0,0 l/m 2 min 0 min 795 W/m 14,6 km/h (3 Bft) 95,74 %
04.04.2017 14:42 16,5 C 27,8 C 17,8 C 52 % 0 lf 1022,9 hPa 0,0 l/m 2 min 0 min 797 W/m 12,6 km/h (3 Bft) 95,65 %
04.04.2017 14:44 16,6 C 28,3 C 17,2 C 52 % 0 lf 1022,9 hPa 0,0 l/m 2 min 0 min 784 W/m 14,6 km/h (3 Bft) 95,74 %
04.04.2017 14:46 16,7 C 28,3 C 17,2 C 52 % 0 lf 1022,9 hPa 0,0 l/m 2 min 0 min 758 W/m 14,6 km/h (3 Bft) 97,87 %
04.04.2017 14:48 16,7 C 27,2 C 16,7 C 51 % 0 lf 1022,9 hPa 0,0 l/m 2 min 0 min 721 W/m 14,6 km/h (3 Bft) 93,62 %
04.04.2017 14:50 16,7 C 26,1 C 16,1 C 50 % 0 lf 1022,9 hPa 0,0 l/m 2 min 0 min 699 W/m 12,6 km/h (3 Bft) 96,55 %
04.04.2017 14:52 16,7 C 25,6 C 16,7 C 51 % 0 lf 1022,9 hPa 0,0 l/m 2 min 0 min 693 W/m 10,5 km/h (2 Bft) 88,57 %
04.04.2017 14:54 16,7 C 26,7 C 16,7 C 51 % 0 lf 1022,9 hPa 0,0 l/m 2 min 0 min 727 W/m 10,5 km/h (2 Bft) 93,62 %
04.04.2017 14:56 16,8 C 27,8 C 16,7 C 51 % 0 lf 1022,9 hPa 0,0 l/m 2 min 0 min 741 W/m 12,6 km/h (3 Bft) 93,62 %
04.04.2017 14:58 16,8 C 27,2 C 17,2 C 52 % 0 lf 1022,9 hPa 0,0 l/m 2 min 0 min 734 W/m 18,8 km/h (3 Bft) 95,74 %
04.04.2017 15:00 16,9 C 26,7 C 16,7 C 51 % 0 lf 1022,9 hPa 0,0 l/m 2 min 0 min 726 W/m 18,8 km/h (3 Bft) 93,62 %
04.04.2017 15:02 16,9 C 26,1 C 17,2 C 51 % 0 lf 1022,9 hPa 0,0 l/m 2 min 0 min 714 W/m 16,7 km/h (3 Bft) 95,74 %
04.04.2017 15:04 16,9 C 25,6 C 16,7 C 51 % 0 lf 1022,8 hPa 0,0 l/m 2 min 0 min 690 W/m 16,7 km/h (3 Bft) 95,74 %
04.04.2017 15:06 16,8 C 25,6 C 17,8 C 51 % 0 lf 1022,9 hPa 0,0 l/m 2 min 0 min 732 W/m 14,6 km/h (3 Bft) 96,15 %
04.04.2017 15:08 16,9 C 26,1 C 18,9 C 53 % 0 lf 1022,8 hPa 0,0 l/m 2 min 0 min 760 W/m 16,7 km/h (3 Bft) 95,74 %
04.04.2017 15:10 16,9 C 26,7 C 19,4 C 52 % 0 lf 1022,9 hPa 0,0 l/m 2 min 0 min 770 W/m 16,7 km/h (3 Bft) 93,62 %
04.04.2017 15:12 16,9 C 26,1 C 19,4 C 52 % 0 lf 1022,9 hPa 0,0 l/m 2 min 0 min 762 W/m 23,0 km/h (4 Bft) 93,62 %
04.04.2017 15:14 16,9 C 26,1 C 19,4 C 51 % 0 lf 1022,8 hPa 0,0 l/m 2 min 0 min 759 W/m 12,6 km/h (3 Bft) 95,65 %
04.04.2017 15:16 16,9 C 26,7 C 20,6 C 51 % 0 lf 1022,7 hPa 0,0 l/m 2 min 0 min 740 W/m 10,5 km/h (2 Bft) 97,56 %
04.04.2017 15:18 16,9 C 26,1 C 20,6 C 52 % 0 lf 1022,7 hPa 0,0 l/m 2 min 0 min 708 W/m 18,8 km/h (3 Bft) 95,74 %
04.04.2017 15:20 17,0 C 26,7 C 20,0 C 52 % 0 lf 1022,7 hPa 0,0 l/m 2 min 0 min 712 W/m 12,6 km/h (3 Bft) 96,61 %
04.04.2017 15:22 17,1 C 26,1 C 20,6 C 53 % 0 lf 1022,7 hPa 0,0 l/m 2 min 0 min 724 W/m 23,0 km/h (4 Bft) 97,14 %
04.04.2017 15:24 17,1 C 25,6 C 20,6 C 53 % 0 lf 1022,7 hPa 0,0 l/m 2 min 0 min 671 W/m 16,7 km/h (3 Bft) 95,74 %
04.04.2017 15:26 17,1 C 22,8 C 18,9 C 52 % 0 lf 1022,7 hPa 0,0 l/m 2 min 0 min 615 W/m 16,7 km/h (3 Bft) 97,87 %
04.04.2017 15:28 16,9 C 20,0 C 17,2 C 52 % 0 lf 1022,6 hPa 0,0 l/m 0 min 0 min 220 W/m 18,8 km/h (3 Bft) 100,00 %
04.04.2017 15:30 16,8 C 18,9 C 16,1 C 52 % 0 lf 1022,7 hPa 0,0 l/m 0 min 0 min 206 W/m 18,8 km/h (3 Bft) 97,87 %
04.04.2017 15:32 16,7 C 20,6 C 16,7 C 53 % 0 lf 1022,6 hPa 0,0 l/m 2 min 0 min 415 W/m 16,7 km/h (3 Bft) 97,87 %
04.04.2017 15:34 16,6 C 19,4 C 16,1 C 53 % 0 lf 1022,7 hPa 0,0 l/m 2 min 0 min 489 W/m 18,8 km/h (3 Bft) 97,87 %
04.04.2017 15:36 16,4 C 18,9 C 15,6 C 54 % 0 lf 1022,6 hPa 0,0 l/m 0 min 0 min 180 W/m 10,5 km/h (2 Bft) 100,00 %
04.04.2017 15:38 16,4 C 18,3 C 15,6 C 54 % 0 lf 1022,6 hPa 0,0 l/m 0 min 0 min 166 W/m 12,6 km/h (3 Bft) 97,83 %
04.04.2017 15:40 16,2 C 17,8 C 15,0 C 54 % 0 lf 1022,6 hPa 0,0 l/m 0 min 0 min 163 W/m 10,5 km/h (2 Bft) 95,74 %
04.04.2017 15:42 16,1 C 17,2 C 14,4 C 54 % 0 lf 1022,6 hPa 0,0 l/m 0 min 0 min 173 W/m 20,9 km/h (4 Bft) 97,87 %
04.04.2017 15:44 16,0 C 18,9 C 15,0 C 54 % 0 lf 1022,5 hPa 0,0 l/m 0 min 0 min 229 W/m 10,5 km/h (2 Bft) 97,87 %
04.04.2017 15:46 15,9 C 21,1 C 15,6 C 53 % 0 lf 1022,6 hPa 0,0 l/m 2 min 0 min 595 W/m 14,6 km/h (3 Bft) 100,00 %
04.04.2017 15:48 15,9 C 22,2 C 15,6 C 53 % 0 lf 1022,5 hPa 0,0 l/m 2 min 0 min 594 W/m 12,6 km/h (3 Bft) 93,62 %
04.04.2017 15:50 15,9 C 22,8 C 15,6 C 52 % 0 lf 1022,4 hPa 0,0 l/m 2 min 0 min 573 W/m 14,6 km/h (3 Bft) 98,11 %
04.04.2017 15:53 15,9 C 22,8 C 15,6 C 52 % 0 lf 1022,5 hPa 0,0 l/m 3 min 0 min 564 W/m 14,6 km/h (3 Bft) 95,95 %
04.04.2017 15:54 15,9 C 22,8 C 15,0 C 52 % 0 lf 1022,5 hPa 0,0 l/m 1 min 0 min 554 W/m 10,5 km/h (2 Bft) 100,00 %
04.04.2017 15:58 16,0 C 23,9 C 15,6 C 52 % 0 lf 1022,5 hPa 0,0 l/m 4 min 0 min 549 W/m 20,9 km/h (4 Bft) 96,81 %
04.04.2017 15:59 16,0 C 23,9 C 15,6 C 52 % 0 lf 1022,5 hPa 0,0 l/m 1 min 0 min 538 W/m 10,5 km/h (2 Bft) 91,30 %
04.04.2017 16:00 16,0 C 24,4 C 15,6 C 52 % 0 lf 1022,5 hPa 0,0 l/m 1 min 0 min 542 W/m 20,9 km/h (4 Bft) 99,12 %
04.04.2017 16:05 16,1 C 24,4 C 15,6 C 54 % 0 lf 1022,4 hPa 0,0 l/m 5 min 0 min 547 W/m 18,8 km/h (3 Bft) 98,25 %
04.04.2017 16:10 16,4 C 26,7 C 17,2 C 54 % 0 lf 1022,3 hPa 0,0 l/m 5 min 0 min 578 W/m 12,6 km/h (3 Bft) 100,00 %
04.04.2017 16:15 16,6 C 25,6 C 16,7 C 51 % 0 lf 1022,3 hPa 0,0 l/m 5 min 0 min 623 W/m 14,6 km/h (3 Bft) 100,00 %
04.04.2017 16:20 16,7 C 23,3 C 16,1 C 51 % 0 lf 1022,3 hPa 0,0 l/m 5 min 0 min 567 W/m 27,2 km/h (4 Bft) 99,12 %
04.04.2017 16:25 16,7 C 23,9 C 16,1 C 51 % 0 lf 1022,4 hPa 0,0 l/m 5 min 0 min 554 W/m 20,9 km/h (4 Bft) 100,00 %
04.04.2017 16:30 16,7 C 21,7 C 15,6 C 50 % 0 lf 1022,3 hPa 0,0 l/m 5 min 0 min 499 W/m 25,1 km/h (4 Bft) 100,00 %
04.04.2017 16:35 16,6 C 22,8 C 16,1 C 51 % 0 lf 1022,2 hPa 0,0 l/m 5 min 0 min 485 W/m 25,1 km/h (4 Bft) 100,00 %
04.04.2017 16:40 16,6 C 22,8 C 16,1 C 51 % 0 lf 1022,2 hPa 0,0 l/m 5 min 0 min 532 W/m 18,8 km/h (3 Bft) 94,74 %
04.04.2017 16:45 16,7 C 22,8 C 15,6 C 52 % 0 lf 1022,1 hPa 0,0 l/m 5 min 0 min 482 W/m 29,3 km/h (5 Bft) 100,00 %
04.04.2017 16:50 16,6 C 21,1 C 15,0 C 51 % 0 lf 1022,2 hPa 0,0 l/m 5 min 0 min 470 W/m 20,9 km/h (4 Bft) 99,12 %
04.04.2017 16:55 16,5 C 22,8 C 15,6 C 50 % 0 lf 1022,1 hPa 0,0 l/m 5 min 0 min 455 W/m 16,7 km/h (3 Bft) 99,12 %
04.04.2017 17:00 16,5 C 22,2 C 15,6 C 52 % 0 lf 1022,1 hPa 0,0 l/m 5 min 0 min 435 W/m 20,9 km/h (4 Bft) 98,25 %
04.04.2017 17:05 16,6 C 22,2 C 15,6 C 50 % 0 lf 1022,1 hPa 0,0 l/m 5 min 0 min 432 W/m 14,6 km/h (3 Bft) 97,37 %
04.04.2017 17:10 16,6 C 22,8 C 15,6 C 49 % 0 lf 1022,1 hPa 0,0 l/m 5 min 0 min 428 W/m 14,6 km/h (3 Bft) 100,00 %
04.04.2017 17:15 16,6 C 21,7 C 15,0 C 50 % 0 lf 1022,1 hPa 0,0 l/m 5 min 0 min 413 W/m 20,9 km/h (4 Bft) 97,37 %
04.04.2017 17:20 16,6 C 22,2 C 15,0 C 50 % 0 lf 1022,1 hPa 0,0 l/m 5 min 0 min 390 W/m 18,8 km/h (3 Bft) 97,37 %
04.04.2017 17:25 16,6 C 22,8 C 15,0 C 50 % 0 lf 1022,2 hPa 0,0 l/m 5 min 0 min 384 W/m 16,7 km/h (3 Bft) 95,61 %
04.04.2017 17:30 16,6 C 22,2 C 15,0 C 49 % 0 lf 1022,1 hPa 0,0 l/m 5 min 0 min 358 W/m 18,8 km/h (3 Bft) 99,12 %
04.04.2017 17:35 16,6 C 20,6 C 15,0 C 49 % 0 lf 1022,2 hPa 0,0 l/m 5 min 0 min 339 W/m 25,1 km/h (4 Bft) 97,37 %
04.04.2017 17:40 16,5 C 20,6 C 14,4 C 49 % 0 lf 1022,1 hPa 0,0 l/m 5 min 0 min 330 W/m 23,0 km/h (4 Bft) 99,12 %
04.04.2017 17:45 16,4 C 20,6 C 14,4 C 49 % 0 lf 1022,1 hPa 0,0 l/m 5 min 0 min 312 W/m 18,8 km/h (3 Bft) 97,37 %
04.04.2017 17:50 16,4 C 20,0 C 14,4 C 50 % 0 lf 1022,2 hPa 0,0 l/m 5 min 0 min 305 W/m 18,8 km/h (3 Bft) 97,37 %
04.04.2017 17:55 16,4 C 19,4 C 14,4 C 51 % 0 lf 1022,3 hPa 0,0 l/m 5 min 0 min 291 W/m 27,2 km/h (4 Bft) 100,00 %
04.04.2017 18:00 16,3 C 18,9 C 14,4 C 50 % 0 lf 1022,3 hPa 0,0 l/m 5 min 0 min 275 W/m 23,0 km/h (4 Bft) 99,12 %
04.04.2017 18:05 16,2 C 18,9 C 14,4 C 51 % 0 lf 1022,2 hPa 0,0 l/m 5 min 0 min 262 W/m 18,8 km/h (3 Bft) 96,49 %
04.04.2017 18:10 16,2 C 18,9 C 14,4 C 51 % 0 lf 1022,3 hPa 0,0 l/m 5 min 0 min 246 W/m 25,1 km/h (4 Bft) 98,25 %
04.04.2017 18:15 16,1 C 17,8 C 14,4 C 51 % 0 lf 1022,3 hPa 0,0 l/m 5 min 0 min 227 W/m 18,8 km/h (3 Bft) 98,25 %
04.04.2017 18:20 15,9 C 17,2 C 13,9 C 53 % 0 lf 1022,3 hPa 0,0 l/m 5 min 0 min 216 W/m 20,9 km/h (4 Bft) 94,74 %
04.04.2017 18:25 15,9 C 16,7 C 13,9 C 53 % 0 lf 1022,3 hPa 0,0 l/m 5 min 0 min 195 W/m 25,1 km/h (4 Bft) 97,37 %
04.04.2017 18:30 15,7 C 16,1 C 13,9 C 53 % 0 lf 1022,3 hPa 0,0 l/m 5 min 0 min 173 W/m 20,9 km/h (4 Bft) 97,37 %
04.04.2017 18:35 15,7 C 16,1 C 13,9 C 54 % 0 lf 1022,3 hPa 0,0 l/m 5 min 0 min 158 W/m 23,0 km/h (4 Bft) 98,25 %
04.04.2017 18:40 15,6 C 16,1 C 13,9 C 52 % 0 lf 1022,4 hPa 0,0 l/m 5 min 0 min 140 W/m 16,7 km/h (3 Bft) 95,61 %
04.04.2017 18:45 15,5 C 15,6 C 13,3 C 52 % 0 lf 1022,4 hPa 0,0 l/m 5 min 0 min 129 W/m 20,9 km/h (4 Bft) 100,00 %
04.04.2017 18:50 15,4 C 15,6 C 13,3 C 53 % 0 lf 1022,3 hPa 0,0 l/m 5 min 0 min 119 W/m 16,7 km/h (3 Bft) 100,00 %
04.04.2017 18:55 15,4 C 15,6 C 13,3 C 53 % 0 lf 1022,3 hPa 0,0 l/m 5 min 0 min 109 W/m 16,7 km/h (3 Bft) 97,37 %
04.04.2017 19:00 15,3 C 15,6 C 13,3 C 53 % 0 lf 1022,4 hPa 0,0 l/m 5 min 0 min 102 W/m 16,7 km/h (3 Bft) 100,00 %
04.04.2017 19:05 15,2 C 15,6 C 13,3 C 54 % 0 lf 1022,3 hPa 0,0 l/m 5 min 0 min 93 W/m 12,6 km/h (3 Bft) 100,00 %
04.04.2017 19:10 15,2 C 15,0 C 12,8 C 54 % 0 lf 1022,4 hPa 0,0 l/m 0 min 0 min 72 W/m 16,7 km/h (3 Bft) 100,00 %
04.04.2017 19:15 15,1 C 15,0 C 12,8 C 55 % 0 lf 1022,5 hPa 0,0 l/m 0 min 0 min 58 W/m 12,6 km/h (3 Bft) 100,00 %
04.04.2017 19:20 15,1 C 15,0 C 12,8 C 56 % 0 lf 1022,4 hPa 0,0 l/m 0 min 0 min 52 W/m 12,6 km/h (3 Bft) 100,00 %
04.04.2017 19:22 15,0 C 14,4 C 12,8 C 56 % 0 lf 1022,4 hPa 0,0 l/m 0 min 0 min 47 W/m 14,6 km/h (3 Bft) 100,00 %
04.04.2017 19:24 14,9 C 14,4 C 12,8 C 56 % 0 lf 1022,4 hPa 0,0 l/m 0 min 0 min 45 W/m 16,7 km/h (3 Bft) 100,00 %
04.04.2017 19:26 14,9 C 14,4 C 12,8 C 56 % 0 lf 1022,5 hPa 0,0 l/m 0 min 0 min 43 W/m 10,5 km/h (2 Bft) 95,74 %
04.04.2017 19:28 14,9 C 14,4 C 12,2 C 56 % 0 lf 1022,4 hPa 0,0 l/m 0 min 0 min 41 W/m 12,6 km/h (3 Bft) 93,62 %
04.04.2017 19:30 14,8 C 14,4 C 12,2 C 56 % 0 lf 1022,5 hPa 0,0 l/m 0 min 0 min 39 W/m 10,5 km/h (2 Bft) 97,83 %
04.04.2017 19:32 14,8 C 14,4 C 12,2 C 56 % 0 lf 1022,5 hPa 0,0 l/m 0 min 0 min 37 W/m 12,6 km/h (3 Bft) 95,74 %
04.04.2017 19:34 14,7 C 14,4 C 12,2 C 56 % 0 lf 1022,4 hPa 0,0 l/m 0 min 0 min 35 W/m 10,5 km/h (2 Bft) 97,73 %
04.04.2017 19:36 14,7 C 13,9 C 12,2 C 57 % 0 lf 1022,4 hPa 0,0 l/m 0 min 0 min 33 W/m 8,4 km/h (2 Bft) 93,62 %
04.04.2017 19:38 14,6 C 13,9 C 12,2 C 57 % 0 lf 1022,4 hPa 0,0 l/m 0 min 0 min 32 W/m 8,4 km/h (2 Bft) 95,74 %
04.04.2017 19:40 14,6 C 13,9 C 11,7 C 57 % 0 lf 1022,5 hPa 0,0 l/m 0 min 0 min 31 W/m 10,5 km/h (2 Bft) 93,62 %
04.04.2017 19:42 14,5 C 13,9 C 11,7 C 57 % 0 lf 1022,5 hPa 0,0 l/m 0 min 0 min 29 W/m 10,5 km/h (2 Bft) 97,87 %
04.04.2017 19:44 14,4 C 13,9 C 11,7 C 57 % 0 lf 1022,5 hPa 0,0 l/m 0 min 0 min 27 W/m 12,6 km/h (3 Bft) 95,65 %
04.04.2017 19:46 14,4 C 13,9 C 11,7 C 57 % 0 lf 1022,5 hPa 0,0 l/m 0 min 0 min 26 W/m 6,3 km/h (2 Bft) 87,23 %
04.04.2017 19:48 14,3 C 13,9 C 11,7 C 57 % 0 lf 1022,6 hPa 0,0 l/m 0 min 0 min 24 W/m 6,3 km/h (2 Bft) 95,74 %
04.04.2017 19:50 14,3 C 13,3 C 11,7 C 57 % 0 lf 1022,6 hPa 0,0 l/m 0 min 0 min 22 W/m 10,5 km/h (2 Bft) 95,74 %
04.04.2017 19:52 14,2 C 13,3 C 11,7 C 57 % 0 lf 1022,6 hPa 0,0 l/m 0 min 0 min 19 W/m 8,4 km/h (2 Bft) 95,74 %
04.04.2017 19:54 14,2 C 13,3 C 11,7 C 57 % 0 lf 1022,6 hPa 0,0 l/m 0 min 0 min 19 W/m 10,5 km/h (2 Bft) 93,62 %
04.04.2017 19:56 14,2 C 13,3 C 11,7 C 57 % 0 lf 1022,6 hPa 0,0 l/m 0 min 0 min 18 W/m 8,4 km/h (2 Bft) 95,65 %
04.04.2017 19:58 14,2 C 13,3 C 11,7 C 57 % 0 lf 1022,6 hPa 0,0 l/m 0 min 0 min 16 W/m 8,4 km/h (2 Bft) 95,74 %
04.04.2017 20:00 14,2 C 13,3 C 11,1 C 58 % 0 lf 1022,6 hPa 0,0 l/m 0 min 0 min 14 W/m 8,4 km/h (2 Bft) 93,62 %
04.04.2017 20:02 14,1 C 13,3 C 11,1 C 58 % 0 lf 1022,6 hPa 0,0 l/m 0 min 0 min 13 W/m 8,4 km/h (2 Bft) 95,74 %
04.04.2017 20:04 14,0 C 12,8 C 11,1 C 58 % 0 lf 1022,6 hPa 0,0 l/m 0 min 0 min 12 W/m 6,3 km/h (2 Bft) 95,74 %
04.04.2017 20:06 13,9 C 12,8 C 11,1 C 58 % 0 lf 1022,6 hPa 0,0 l/m 0 min 0 min 11 W/m 6,3 km/h (2 Bft) 97,83 %
04.04.2017 20:08 13,9 C 12,8 C 10,6 C 58 % 0 lf 1022,7 hPa 0,0 l/m 0 min 0 min 11 W/m 6,3 km/h (2 Bft) 97,87 %
04.04.2017 20:10 13,9 C 12,8 C 10,6 C 58 % 0 lf 1022,7 hPa 0,0 l/m 0 min 0 min 10 W/m 6,3 km/h (2 Bft) 97,87 %
04.04.2017 20:12 13,8 C 12,2 C 10,6 C 58 % 0 lf 1022,7 hPa 0,0 l/m 0 min 0 min 9 W/m 6,3 km/h (2 Bft) 93,62 %
04.04.2017 20:14 13,8 C 12,2 C 10,0 C 59 % 0 lf 1022,7 hPa 0,0 l/m 0 min 0 min 9 W/m 6,3 km/h (2 Bft) 95,74 %
04.04.2017 20:16 13,7 C 12,2 C 10,0 C 58 % 0 lf 1022,7 hPa 0,0 l/m 0 min 0 min 7 W/m 6,3 km/h (2 Bft) 97,87 %
04.04.2017 20:18 13,7 C 12,2 C 10,0 C 59 % 0 lf 1022,7 hPa 0,0 l/m 0 min 0 min 7 W/m 6,3 km/h (2 Bft) 95,65 %
04.04.2017 20:20 13,6 C 12,2 C 10,0 C 59 % 0 lf 1022,7 hPa 0,0 l/m 0 min 0 min 6 W/m 6,3 km/h (2 Bft) 95,74 %
04.04.2017 20:22 13,5 C 12,2 C 10,0 C 59 % 0 lf 1022,7 hPa 0,0 l/m 0 min 0 min 5 W/m 10,5 km/h (2 Bft) 95,74 %
04.04.2017 20:24 13,4 C 12,2 C 10,0 C 59 % 0 lf 1022,7 hPa 0,0 l/m 0 min 0 min 5 W/m 8,4 km/h (2 Bft) 97,87 %
04.04.2017 20:26 13,4 C 12,2 C 9,4 C 59 % 0 lf 1022,7 hPa 0,0 l/m 0 min 0 min 5 W/m 6,3 km/h (2 Bft) 95,74 %
04.04.2017 20:28 13,3 C 12,2 C 9,4 C 59 % 0 lf 1022,8 hPa 0,0 l/m 0 min 0 min 3 W/m 6,3 km/h (2 Bft) 97,87 %
04.04.2017 20:30 13,3 C 11,7 C 9,4 C 59 % 0 lf 1022,8 hPa 0,0 l/m 0 min 0 min 0 W/m 4,2 km/h (1 Bft) 93,48 %
04.04.2017 20:32 13,3 C 11,7 C 8,9 C 59 % 0 lf 1022,8 hPa 0,0 l/m 0 min 0 min 0 W/m 6,3 km/h (2 Bft) 97,87 %
04.04.2017 20:34 13,2 C 11,7 C 8,9 C 60 % 0 lf 1022,8 hPa 0,0 l/m 0 min 0 min 0 W/m 6,3 km/h (2 Bft) 97,87 %
04.04.2017 20:36 13,2 C 11,1 C 8,3 C 60 % 0 lf 1022,8 hPa 0,0 l/m 0 min 0 min 0 W/m 4,2 km/h (1 Bft) 97,87 %
04.04.2017 20:38 13,1 C 11,1 C 8,3 C 60 % 0 lf 1022,9 hPa 0,0 l/m 0 min 0 min 0 W/m 4,2 km/h (1 Bft) 95,74 %
04.04.2017 20:40 13,1 C 11,1 C 7,8 C 61 % 0 lf 1022,9 hPa 0,0 l/m 0 min 0 min 0 W/m 4,2 km/h (1 Bft) 95,74 %
04.04.2017 20:42 13,0 C 10,6 C 7,8 C 61 % 0 lf 1022,9 hPa 0,0 l/m 0 min 0 min 0 W/m 4,2 km/h (1 Bft) 93,48 %
04.04.2017 20:44 12,9 C 10,6 C 7,2 C 61 % 0 lf 1022,9 hPa 0,0 l/m 0 min 0 min 0 W/m 6,3 km/h (2 Bft) 97,87 %
04.04.2017 20:46 12,9 C 10,6 C 7,2 C 61 % 0 lf 1023,0 hPa 0,0 l/m 0 min 0 min 0 W/m 4,2 km/h (1 Bft) 93,62 %
04.04.2017 20:48 12,8 C 10,6 C 7,2 C 62 % 0 lf 1023,0 hPa 0,0 l/m 0 min 0 min 0 W/m 6,3 km/h (2 Bft) 97,87 %
04.04.2017 20:50 12,8 C 10,6 C 7,8 C 61 % 0 lf 1023,1 hPa 0,0 l/m 0 min 0 min 0 W/m 6,3 km/h (2 Bft) 95,74 %
04.04.2017 20:52 12,7 C 10,6 C 7,8 C 62 % 0 lf 1023,2 hPa 0,0 l/m 0 min 0 min 0 W/m 4,2 km/h (1 Bft) 95,74 %
04.04.2017 20:54 12,7 C 10,6 C 7,8 C 62 % 0 lf 1023,2 hPa 0,0 l/m 0 min 0 min 0 W/m 6,3 km/h (2 Bft) 95,65 %
04.04.2017 20:56 12,6 C 10,6 C 7,2 C 62 % 0 lf 1023,1 hPa 0,0 l/m 0 min 0 min 0 W/m 4,2 km/h (1 Bft) 95,74 %
04.04.2017 20:58 12,6 C 10,6 C 7,2 C 62 % 0 lf 1023,1 hPa 0,0 l/m 0 min 0 min 0 W/m 2,1 km/h (1 Bft) 93,62 %
04.04.2017 21:00 12,5 C 10,0 C 7,2 C 62 % 0 lf 1023,2 hPa 0,0 l/m 0 min 0 min 0 W/m 4,2 km/h (1 Bft) 95,74 %
04.04.2017 21:02 12,4 C 10,0 C 6,7 C 62 % 0 lf 1023,2 hPa 0,0 l/m 0 min 0 min 0 W/m 4,2 km/h (1 Bft) 89,36 %
04.04.2017 21:04 12,3 C 10,0 C 6,7 C 63 % 0 lf 1023,1 hPa 0,0 l/m 0 min 0 min 0 W/m 4,2 km/h (1 Bft) 93,62 %
04.04.2017 21:06 12,3 C 10,0 C 6,7 C 63 % 0 lf 1023,2 hPa 0,0 l/m 0 min 0 min 0 W/m 4,2 km/h (1 Bft) 95,65 %
04.04.2017 21:08 12,2 C 9,4 C 6,7 C 63 % 0 lf 1023,2 hPa 0,0 l/m 0 min 0 min 0 W/m 4,2 km/h (1 Bft) 93,62 %
04.04.2017 21:10 12,2 C 9,4 C 6,7 C 63 % 0 lf 1023,2 hPa 0,0 l/m 0 min 0 min 0 W/m 2,1 km/h (1 Bft) 93,62 %
04.04.2017 21:12 12,1 C 9,4 C 6,1 C 63 % 0 lf 1023,1 hPa 0,0 l/m 0 min 0 min 0 W/m 4,2 km/h (1 Bft) 91,49 %
04.04.2017 21:14 12,1 C 9,4 C 6,1 C 64 % 0 lf 1023,2 hPa 0,0 l/m 0 min 0 min 0 W/m 4,2 km/h (1 Bft) 93,62 %
04.04.2017 21:16 11,9 C 9,4 C 6,1 C 64 % 0 lf 1023,2 hPa 0,0 l/m 0 min 0 min 0 W/m 4,2 km/h (1 Bft) 95,74 %
04.04.2017 21:18 11,9 C 8,9 C 6,1 C 64 % 0 lf 1023,2 hPa 0,0 l/m 0 min 0 min 0 W/m 4,2 km/h (1 Bft) 93,48 %
04.04.2017 21:20 11,8 C 8,9 C 6,1 C 65 % 0 lf 1023,2 hPa 0,0 l/m 0 min 0 min 0 W/m 4,2 km/h (1 Bft) 95,74 %
04.04.2017 21:22 11,8 C 8,9 C 6,1 C 65 % 0 lf 1023,2 hPa 0,0 l/m 0 min 0 min 0 W/m 4,2 km/h (1 Bft) 93,62 %
04.04.2017 21:24 11,7 C 8,9 C 6,1 C 65 % 0 lf 1023,2 hPa 0,0 l/m 0 min 0 min 0 W/m 2,1 km/h (1 Bft) 91,49 %
04.04.2017 21:26 11,6 C 8,9 C 6,1 C 65 % 0 lf 1023,2 hPa 0,0 l/m 0 min 0 min 0 W/m 2,1 km/h (1 Bft) 93,62 %
04.04.2017 21:28 11,6 C 8,9 C 6,1 C 65 % 0 lf 1023,2 hPa 0,0 l/m 0 min 0 min 0 W/m 0,0 km/h (0 Bft) 87,23 %
04.04.2017 21:30 11,4 C 8,9 C 5,6 C 66 % 0 lf 1023,2 hPa 0,0 l/m 0 min 0 min 0 W/m 0,0 km/h (0 Bft) 93,48 %
04.04.2017 21:32 11,4 C 8,3 C 5,6 C 66 % 0 lf 1023,3 hPa 0,0 l/m 0 min 0 min 0 W/m 2,1 km/h (1 Bft) 93,62 %
04.04.2017 21:34 11,3 C 8,3 C 5,6 C 66 % 0 lf 1023,3 hPa 0,0 l/m 0 min 0 min 0 W/m 2,1 km/h (1 Bft) 95,74 %
04.04.2017 21:36 11,2 C 8,3 C 5,6 C 67 % 0 lf 1023,3 hPa 0,0 l/m 0 min 0 min 0 W/m 2,1 km/h (1 Bft) 95,74 %
04.04.2017 21:38 11,2 C 8,3 C 5,6 C 67 % 0 lf 1023,3 hPa 0,0 l/m 0 min 0 min 0 W/m 2,1 km/h (1 Bft) 95,74 %
04.04.2017 21:40 11,1 C 8,3 C 5,6 C 67 % 0 lf 1023,3 hPa 0,0 l/m 0 min 0 min 0 W/m 2,1 km/h (1 Bft) 91,30 %
04.04.2017 21:42 11,0 C 8,3 C 5,6 C 67 % 0 lf 1023,3 hPa 0,0 l/m 0 min 0 min 0 W/m 0,0 km/h (0 Bft) 95,74 %
04.04.2017 21:44 10,9 C 8,9 C 5,6 C 67 % 0 lf 1023,3 hPa 0,0 l/m 0 min 0 min 0 W/m 0,0 km/h (0 Bft) 93,62 %
04.04.2017 21:46 10,9 C 8,9 C 5,6 C 68 % 0 lf 1023,3 hPa 0,0 l/m 0 min 0 min 0 W/m 0,0 km/h (0 Bft) 93,62 %
04.04.2017 21:48 10,8 C 8,3 C 5,6 C 68 % 0 lf 1023,3 hPa 0,0 l/m 0 min 0 min 0 W/m 0,0 km/h (0 Bft) 93,62 %
04.04.2017 21:50 10,8 C 8,3 C 5,6 C 68 % 0 lf 1023,4 hPa 0,0 l/m 0 min 0 min 0 W/m 0,0 km/h (0 Bft) 93,62 %
04.04.2017 21:52 10,7 C 8,3 C 5,6 C 68 % 0 lf 1023,4 hPa 0,0 l/m 0 min 0 min 0 W/m 2,1 km/h (1 Bft) 97,83 %
04.04.2017 21:54 10,6 C 8,3 C 5,6 C 69 % 0 lf 1023,4 hPa 0,0 l/m 0 min 0 min 0 W/m 4,2 km/h (1 Bft) 97,87 %
04.04.2017 21:56 10,6 C 8,3 C 5,6 C 69 % 0 lf 1023,4 hPa 0,0 l/m 0 min 0 min 0 W/m 4,2 km/h (1 Bft) 97,87 %
04.04.2017 21:58 10,5 C 7,8 C 5,6 C 69 % 0 lf 1023,3 hPa 0,0 l/m 0 min 0 min 0 W/m 2,1 km/h (1 Bft) 100,00 %
04.04.2017 22:00 10,4 C 7,8 C 5,6 C 69 % 0 lf 1023,4 hPa 0,0 l/m 0 min 0 min 0 W/m 2,1 km/h (1 Bft) 100,00 %
04.04.2017 22:02 10,3 C 7,8 C 5,0 C 70 % 0 lf 1023,3 hPa 0,0 l/m 0 min 0 min 0 W/m 0,0 km/h (0 Bft) 97,87 %
04.04.2017 22:04 10,3 C 7,8 C 5,0 C 70 % 0 lf 1023,4 hPa 0,0 l/m 0 min 0 min 0 W/m 0,0 km/h (0 Bft) 97,83 %
04.04.2017 22:06 10,2 C 7,8 C 5,0 C 70 % 0 lf 1023,3 hPa 0,0 l/m 0 min 0 min 0 W/m 0,0 km/h (0 Bft) 100,00 %
04.04.2017 22:08 10,2 C 7,8 C 5,0 C 70 % 0 lf 1023,3 hPa 0,0 l/m 0 min 0 min 0 W/m 0,0 km/h (0 Bft) 95,74 %
04.04.2017 22:10 10,1 C 7,8 C 5,0 C 70 % 0 lf 1023,4 hPa 0,0 l/m 0 min 0 min 0 W/m 0,0 km/h (0 Bft) 97,87 %
04.04.2017 22:12 10,0 C 7,8 C 5,0 C 70 % 0 lf 1023,4 hPa 0,0 l/m 0 min 0 min 0 W/m 0,0 km/h (0 Bft) 97,87 %
04.04.2017 22:14 10,0 C 7,8 C 5,0 C 70 % 0 lf 1023,4 hPa 0,0 l/m 0 min 0 min 0 W/m 0,0 km/h (0 Bft) 100,00 %
04.04.2017 22:16 9,9 C 7,2 C 5,0 C 71 % 0 lf 1023,4 hPa 0,0 l/m 0 min 0 min 0 W/m 0,0 km/h (0 Bft) 100,00 %
04.04.2017 22:18 9,9 C 7,2 C 5,0 C 70 % 0 lf 1023,4 hPa 0,0 l/m 0 min 0 min 0 W/m 0,0 km/h (0 Bft) 95,74 %
04.04.2017 22:20 9,8 C 7,2 C 5,0 C 71 % 0 lf 1023,4 hPa 0,0 l/m 0 min 0 min 0 W/m 0,0 km/h (0 Bft) 95,74 %
04.04.2017 22:22 9,8 C 7,2 C 5,0 C 71 % 0 lf 1023,4 hPa 0,0 l/m 0 min 0 min 0 W/m 0,0 km/h (0 Bft) 97,87 %
04.04.2017 22:24 9,7 C 7,2 C 5,0 C 71 % 0 lf 1023,5 hPa 0,0 l/m 0 min 0 min 0 W/m 0,0 km/h (0 Bft) 100,00 %
04.04.2017 22:26 9,7 C 7,2 C 5,0 C 71 % 0 lf 1023,5 hPa 0,0 l/m 0 min 0 min 0 W/m 0,0 km/h (0 Bft) 100,00 %
04.04.2017 22:28 9,6 C 7,2 C 5,0 C 71 % 0 lf 1023,5 hPa 0,0 l/m 0 min 0 min 0 W/m 0,0 km/h (0 Bft) 97,83 %
04.04.2017 22:30 9,6 C 7,2 C 4,4 C 71 % 0 lf 1023,4 hPa 0,0 l/m 0 min 0 min 0 W/m 0,0 km/h (0 Bft) 100,00 %
04.04.2017 22:32 9,4 C 7,2 C 4,4 C 72 % 0 lf 1023,4 hPa 0,0 l/m 0 min 0 min 0 W/m 0,0 km/h (0 Bft) 100,00 %
04.04.2017 22:34 9,4 C 6,7 C 4,4 C 72 % 2 lf 1023,5 hPa 0,0 l/m 0 min 0 min 0 W/m 0,0 km/h (0 Bft) 100,00 %
04.04.2017 22:36 9,4 C 6,7 C 4,4 C 73 % 0 lf 1023,5 hPa 0,0 l/m 0 min 0 min 0 W/m 0,0 km/h (0 Bft) 97,87 %
04.04.2017 22:38 9,3 C 6,7 C 4,4 C 72 % 0 lf 1023,5 hPa 0,0 l/m 0 min 0 min 0 W/m 4,2 km/h (1 Bft) 97,87 %
04.04.2017 22:40 9,3 C 6,7 C 4,4 C 73 % 0 lf 1023,6 hPa 0,0 l/m 0 min 0 min 0 W/m 4,2 km/h (1 Bft) 100,00 %
04.04.2017 22:42 9,2 C 6,7 C 4,4 C 73 % 0 lf 1023,5 hPa 0,0 l/m 0 min 0 min 0 W/m 4,2 km/h (1 Bft) 100,00 %
04.04.2017 22:44 9,2 C 6,7 C 4,4 C 73 % 0 lf 1023,6 hPa 0,0 l/m 0 min 0 min 0 W/m 4,2 km/h (1 Bft) 100,00 %
04.04.2017 22:46 9,1 C 6,7 C 4,4 C 74 % 0 lf 1023,6 hPa 0,0 l/m 0 min 0 min 0 W/m 4,2 km/h (1 Bft) 100,00 %
04.04.2017 22:48 9,1 C 6,7 C 4,4 C 74 % 0 lf 1023,5 hPa 0,0 l/m 0 min 0 min 0 W/m 4,2 km/h (1 Bft) 100,00 %
04.04.2017 22:50 8,9 C 6,7 C 4,4 C 74 % 0 lf 1023,6 hPa 0,0 l/m 0 min 0 min 0 W/m 2,1 km/h (1 Bft) 97,87 %
04.04.2017 22:52 8,9 C 6,7 C 4,4 C 74 % 0 lf 1023,5 hPa 0,0 l/m 0 min 0 min 0 W/m 0,0 km/h (0 Bft) 100,00 %
04.04.2017 22:54 8,9 C 6,7 C 4,4 C 74 % 0 lf 1023,5 hPa 0,0 l/m 0 min 0 min 0 W/m 0,0 km/h (0 Bft) 100,00 %
04.04.2017 22:56 8,8 C 6,7 C 4,4 C 75 % 0 lf 1023,5 hPa 0,0 l/m 0 min 0 min 0 W/m 0,0 km/h (0 Bft) 97,87 %
04.04.2017 22:58 8,8 C 6,7 C 4,4 C 75 % 0 lf 1023,5 hPa 0,0 l/m 0 min 0 min 0 W/m 0,0 km/h (0 Bft) 100,00 %
04.04.2017 23:00 8,7 C 6,7 C 4,4 C 75 % 0 lf 1023,5 hPa 0,0 l/m 0 min 0 min 0 W/m 0,0 km/h (0 Bft) 100,00 %
04.04.2017 23:02 8,7 C 6,7 C 4,4 C 75 % 0 lf 1023,5 hPa 0,0 l/m 0 min 0 min 0 W/m 2,1 km/h (1 Bft) 95,65 %
04.04.2017 23:04 8,6 C 6,1 C 4,4 C 76 % 0 lf 1023,6 hPa 0,0 l/m 0 min 0 min 0 W/m 0,0 km/h (0 Bft) 97,87 %
04.04.2017 23:06 8,6 C 6,1 C 3,9 C 76 % 0 lf 1023,6 hPa 0,0 l/m 0 min 0 min 0 W/m 0,0 km/h (0 Bft) 97,87 %
04.04.2017 23:08 8,6 C 6,1 C 3,9 C 76 % 0 lf 1023,6 hPa 0,0 l/m 0 min 0 min 0 W/m 0,0 km/h (0 Bft) 97,87 %
04.04.2017 23:10 8,5 C 6,1 C 3,9 C 76 % 0 lf 1023,6 hPa 0,0 l/m 0 min 0 min 0 W/m 2,1 km/h (1 Bft) 95,74 %
04.04.2017 23:12 8,4 C 6,1 C 3,9 C 76 % 0 lf 1023,6 hPa 0,0 l/m 0 min 0 min 0 W/m 2,1 km/h (1 Bft) 97,87 %
04.04.2017 23:14 8,4 C 6,1 C 3,9 C 76 % 0 lf 1023,6 hPa 0,0 l/m 0 min 0 min 0 W/m 2,1 km/h (1 Bft) 95,65 %
04.04.2017 23:16 8,4 C 6,1 C 3,9 C 76 % 0 lf 1023,6 hPa 0,0 l/m 0 min 0 min 0 W/m 2,1 km/h (1 Bft) 93,62 %
04.04.2017 23:18 8,3 C 6,1 C 3,9 C 76 % 0 lf 1023,6 hPa 0,0 l/m 0 min 0 min 0 W/m 2,1 km/h (1 Bft) 95,74 %
04.04.2017 23:20 8,3 C 6,1 C 3,9 C 77 % 0 lf 1023,6 hPa 0,0 l/m 0 min 0 min 0 W/m 2,1 km/h (1 Bft) 95,74 %
04.04.2017 23:22 8,2 C 6,1 C 3,9 C 77 % 0 lf 1023,7 hPa 0,0 l/m 0 min 0 min 0 W/m 0,0 km/h (0 Bft) 95,74 %
04.04.2017 23:24 8,2 C 6,1 C 3,9 C 77 % 0 lf 1023,7 hPa 0,0 l/m 0 min 0 min 0 W/m 0,0 km/h (0 Bft) 95,74 %
04.04.2017 23:26 8,2 C 6,1 C 3,9 C 77 % 0 lf 1023,6 hPa 0,0 l/m 0 min 0 min 0 W/m 0,0 km/h (0 Bft) 95,65 %
04.04.2017 23:28 8,2 C 6,1 C 3,9 C 77 % 0 lf 1023,7 hPa 0,0 l/m 0 min 0 min 0 W/m 0,0 km/h (0 Bft) 95,74 %
04.04.2017 23:30 8,1 C 6,1 C 3,9 C 77 % 0 lf 1023,7 hPa 0,0 l/m 0 min 0 min 0 W/m 0,0 km/h (0 Bft) 93,62 %
04.04.2017 23:32 8,1 C 6,1 C 3,9 C 77 % 0 lf 1023,7 hPa 0,0 l/m 0 min 0 min 0 W/m 0,0 km/h (0 Bft) 95,74 %
04.04.2017 23:34 8,0 C 6,1 C 3,9 C 78 % 0 lf 1023,7 hPa 0,0 l/m 0 min 0 min 0 W/m 0,0 km/h (0 Bft) 95,74 %
04.04.2017 23:36 8,0 C 6,1 C 3,9 C 78 % 0 lf 1023,7 hPa 0,0 l/m 0 min 0 min 0 W/m 0,0 km/h (0 Bft) 95,74 %
04.04.2017 23:38 7,9 C 6,1 C 3,9 C 78 % 0 lf 1023,7 hPa 0,0 l/m 0 min 0 min 0 W/m 0,0 km/h (0 Bft) 95,65 %
04.04.2017 23:40 7,9 C 6,1 C 3,9 C 78 % 0 lf 1023,7 hPa 0,0 l/m 0 min 0 min 0 W/m 0,0 km/h (0 Bft) 97,87 %
04.04.2017 23:42 7,9 C 6,1 C 3,9 C 78 % 0 lf 1023,6 hPa 0,0 l/m 0 min 0 min 0 W/m 0,0 km/h (0 Bft) 95,74 %
04.04.2017 23:44 7,8 C 6,1 C 3,9 C 78 % 0 lf 1023,7 hPa 0,0 l/m 0 min 0 min 0 W/m 0,0 km/h (0 Bft) 93,62 %
04.04.2017 23:46 7,8 C 6,1 C 3,9 C 78 % 0 lf 1023,7 hPa 0,0 l/m 0 min 0 min 0 W/m 0,0 km/h (0 Bft) 95,74 %
04.04.2017 23:48 7,8 C 6,1 C 3,9 C 78 % 0 lf 1023,7 hPa 0,0 l/m 0 min 0 min 0 W/m 0,0 km/h (0 Bft) 97,87 %
04.04.2017 23:50 7,7 C 6,1 C 3,9 C 78 % 0 lf 1023,7 hPa 0,0 l/m 0 min 0 min 0 W/m 0,0 km/h (0 Bft) 97,83 %
04.04.2017 23:52 7,7 C 6,1 C 3,9 C 78 % 0 lf 1023,7 hPa 0,0 l/m 0 min 0 min 0 W/m 0,0 km/h (0 Bft) 97,87 %
04.04.2017 23:54 7,7 C 5,6 C 3,9 C 79 % 0 lf 1023,7 hPa 0,0 l/m 0 min 0 min 0 W/m 0,0 km/h (0 Bft) 95,74 %
04.04.2017 23:56 7,7 C 5,6 C 3,9 C 79 % 0 lf 1023,7 hPa 0,0 l/m 0 min 0 min 0 W/m 0,0 km/h (0 Bft) 95,74 %
04.04.2017 23:58 7,6 C 5,6 C 3,9 C 79 % 0 lf 1023,7 hPa 0,0 l/m 0 min 0 min 0 W/m 0,0 km/h (0 Bft) 97,87 %
_ Min-Zeit 07:06 06:16 05:28 17:10 00:00 16:45 - - - - 00:00 19:46
Minimum _ 2,7 C 1,1 C 0,6 C 49 % 0 lf 1022,1 hPa - - - - 0,0 km/h (0 Bft) 87,23 %
_ Max-Zeit 15:22 14:02 11:28 09:16 03:18 00:06 00:00 16:05 00:00 13:58 16:45 00:00
Maximum _ 17,1 C 28,9 C 20,6 C 97 % 15 lf 1024,4 hPa 0,0 l/m 5 min 0 min 829 W/m 29,3 km/h
NO (5 Bft)
100,00 %
Durchschnitt _ 10,2 C 12,6 C 8,6 C 73 % 4 lf 1023,2 hPa #0,0 l/m #11:17 h #0 min. 369 W/m 6,7 km/h (2 Bft) 96,60 %
© 2017 W. Hausmann